Time,TemperatureF,DewpointF,PressureIn,WindDirection,WindDirectionDegrees,WindSpeedMPH,WindSpeedGustMPH,Humidity,HourlyPrecipIn,Conditions,Clouds,dailyrainin,SoftwareType,DateUTC
2013-01-27 00:02:00,40.0,33.0,29.75,SSW,204,2.0,4.0,76,0.00,,,0.00,Wunderground v.1.15,2013-01-27 07:02:00,
2013-01-27 00:04:00,40.0,33.0,29.75,SSW,201,1.0,4.0,76,0.00,,,0.00,Wunderground v.1.15,2013-01-27 07:04:00,
2013-01-27 00:07:00,39.9,32.6,29.75,SW,235,2.0,4.0,75,0.00,,,0.00,Wunderground v.1.15,2013-01-27 07:07:00,
2013-01-27 00:09:00,39.7,32.4,29.75,WSW,241,1.0,4.0,75,0.00,,,0.00,Wunderground v.1.15,2013-01-27 07:09:00,
2013-01-27 00:14:00,39.5,32.6,29.75,SSW,212,1.0,2.0,76,0.00,,,0.00,Wunderground v.1.15,2013-01-27 07:14:00,
2013-01-27 00:15:00,39.5,32.6,29.74,SSW,206,2.0,2.0,76,0.00,,,0.00,Wunderground v.1.15,2013-01-27 07:15:00,
2013-01-27 00:21:00,39.4,32.5,29.74,SW,221,1.0,2.0,76,0.00,,,0.00,Wunderground v.1.15,2013-01-27 07:21:00,
2013-01-27 00:23:00,39.3,32.4,29.74,WSW,253,3.0,3.0,76,0.00,,,0.00,Wunderground v.1.15,2013-01-27 07:23:00,
2013-01-27 00:24:00,39.2,32.3,29.74,WSW,253,4.0,4.0,76,0.00,,,0.00,Wunderground v.1.15,2013-01-27 07:24:00,
2013-01-27 00:26:00,39.1,32.2,29.74,WSW,256,3.0,4.0,76,0.00,,,0.00,Wunderground v.1.15,2013-01-27 07:26:00,
2013-01-27 00:30:00,38.9,32.3,29.74,SSW,202,1.0,3.0,77,0.00,,,0.00,Wunderground v.1.15,2013-01-27 07:30:00,
2013-01-27 00:32:00,38.9,32.3,29.73,WSW,248,2.0,3.0,77,0.00,,,0.00,Wunderground v.1.15,2013-01-27 07:32:00,
2013-01-27 00:34:00,38.9,32.6,29.73,WSW,253,3.0,3.0,78,0.00,,,0.00,Wunderground v.1.15,2013-01-27 07:34:00,
2013-01-27 00:37:00,39.0,32.1,29.73,WSW,255,3.0,3.0,76,0.00,,,0.00,Wunderground v.1.15,2013-01-27 07:37:00,
2013-01-27 00:38:00,38.9,32.0,29.73,WSW,253,4.0,4.0,76,0.00,,,0.00,Wunderground v.1.15,2013-01-27 07:38:00,
2013-01-27 00:40:00,38.8,31.9,29.73,WSW,250,4.0,4.0,76,0.00,,,0.00,Wunderground v.1.15,2013-01-27 07:40:00,
2013-01-27 00:42:00,38.7,32.1,29.73,WSW,257,4.0,4.0,77,0.00,,,0.00,Wunderground v.1.15,2013-01-27 07:42:00,
2013-01-27 00:43:00,38.7,32.4,29.73,WSW,250,4.0,4.0,78,0.00,,,0.00,Wunderground v.1.15,2013-01-27 07:43:00,
2013-01-27 00:49:00,39.2,32.6,29.73,WSW,243,3.0,4.0,77,0.00,,,0.00,Wunderground v.1.15,2013-01-27 07:49:00,
2013-01-27 00:50:00,39.3,32.7,29.73,SW,225,3.0,4.0,77,0.00,,,0.00,Wunderground v.1.15,2013-01-27 07:50:00,
2013-01-27 00:51:00,39.4,32.8,29.73,SW,228,3.0,4.0,77,0.00,,,0.00,Wunderground v.1.15,2013-01-27 07:51:00,
2013-01-27 00:52:00,39.4,32.8,29.73,SW,221,3.0,4.0,77,0.00,,,0.00,Wunderground v.1.15,2013-01-27 07:52:00,
2013-01-27 00:58:00,39.4,32.1,29.73,WSW,253,3.0,4.0,75,0.00,,,0.00,Wunderground v.1.15,2013-01-27 07:58:00,
2013-01-27 00:59:00,39.3,32.0,29.73,WSW,248,3.0,4.0,75,0.00,,,0.00,Wunderground v.1.15,2013-01-27 07:59:00,
2013-01-27 01:02:00,39.3,32.4,29.73,SSW,201,1.0,3.0,76,0.00,,,0.00,Wunderground v.1.15,2013-01-27 08:02:00,
2013-01-27 01:04:00,39.2,32.3,29.73,SSW,192,1.0,3.0,76,0.00,,,0.00,Wunderground v.1.15,2013-01-27 08:04:00,
2013-01-27 01:07:00,39.2,32.6,29.73,SSW,207,1.0,3.0,77,0.00,,,0.00,Wunderground v.1.15,2013-01-27 08:07:00,
2013-01-27 01:08:00,39.2,32.6,29.73,SSW,207,0.0,3.0,77,0.00,,,0.00,Wunderground v.1.15,2013-01-27 08:08:00,
2013-01-27 01:10:00,39.2,32.6,29.73,SSW,197,1.0,1.0,77,0.00,,,0.00,Wunderground v.1.15,2013-01-27 08:10:00,
2013-01-27 01:14:00,39.1,32.2,29.73,WSW,256,2.0,2.0,76,0.00,,,0.00,Wunderground v.1.15,2013-01-27 08:14:00,
2013-01-27 01:16:00,39.0,32.1,29.73,WSW,256,2.0,3.0,76,0.00,,,0.00,Wunderground v.1.15,2013-01-27 08:16:00,
2013-01-27 01:17:00,39.0,32.1,29.73,SW,217,1.0,3.0,76,0.00,,,0.00,Wunderground v.1.15,2013-01-27 08:17:00,
2013-01-27 01:18:00,38.9,32.0,29.73,SW,231,2.0,3.0,76,0.00,,,0.00,Wunderground v.1.15,2013-01-27 08:18:00,
2013-01-27 01:19:00,38.8,31.9,29.73,WSW,238,2.0,3.0,76,0.00,,,0.00,Wunderground v.1.15,2013-01-27 08:19:00,
2013-01-27 01:22:00,38.7,31.8,29.73,WSW,253,4.0,4.0,76,0.00,,,0.00,Wunderground v.1.15,2013-01-27 08:22:00,
2013-01-27 01:23:00,38.6,31.7,29.73,WSW,248,3.0,4.0,76,0.00,,,0.00,Wunderground v.1.15,2013-01-27 08:23:00,
2013-01-27 01:24:00,38.5,31.6,29.73,SW,231,3.0,4.0,76,0.00,,,0.00,Wunderground v.1.15,2013-01-27 08:24:00,
2013-01-27 01:28:00,38.4,31.8,29.73,SW,233,2.0,4.0,77,0.00,,,0.00,Wunderground v.1.15,2013-01-27 08:28:00,
2013-01-27 01:30:00,38.4,31.8,29.73,WSW,240,2.0,3.0,77,0.00,,,0.00,Wunderground v.1.15,2013-01-27 08:30:00,
2013-01-27 01:31:00,38.5,31.9,29.73,SSW,211,2.0,3.0,77,0.00,,,0.00,Wunderground v.1.15,2013-01-27 08:31:00,
2013-01-27 01:34:00,38.6,32.0,29.73,SW,221,2.0,3.0,77,0.00,,,0.00,Wunderground v.1.15,2013-01-27 08:34:00,
2013-01-27 01:37:00,38.8,32.2,29.73,WSW,249,1.0,3.0,77,0.00,,,0.00,Wunderground v.1.15,2013-01-27 08:37:00,
2013-01-27 01:38:00,38.8,32.2,29.73,SSW,205,2.0,3.0,77,0.00,,,0.00,Wunderground v.1.15,2013-01-27 08:38:00,
2013-01-27 01:39:00,38.8,32.2,29.73,SSW,197,1.0,3.0,77,0.00,,,0.00,Wunderground v.1.15,2013-01-27 08:39:00,
2013-01-27 01:44:00,38.7,32.1,29.73,SW,231,1.0,2.0,77,0.00,,,0.00,Wunderground v.1.15,2013-01-27 08:44:00,
2013-01-27 01:45:00,38.7,32.1,29.73,SW,231,2.0,2.0,77,0.00,,,0.00,Wunderground v.1.15,2013-01-27 08:45:00,
2013-01-27 01:46:00,38.7,32.1,29.73,SW,225,2.0,2.0,77,0.00,,,0.00,Wunderground v.1.15,2013-01-27 08:46:00,
2013-01-27 01:47:00,38.7,32.1,29.73,SSW,194,1.0,2.0,77,0.00,,,0.00,Wunderground v.1.15,2013-01-27 08:47:00,
2013-01-27 01:50:00,38.7,32.1,29.73,South,190,1.0,2.0,77,0.00,,,0.00,Wunderground v.1.15,2013-01-27 08:50:00,
2013-01-27 01:53:00,38.7,32.1,29.73,SSW,197,1.0,3.0,77,0.00,,,0.00,Wunderground v.1.15,2013-01-27 08:53:00,
2013-01-27 01:56:00,38.7,32.1,29.73,SSW,198,3.0,3.0,77,0.00,,,0.00,Wunderground v.1.15,2013-01-27 08:56:00,
2013-01-27 02:00:00,38.6,32.0,29.73,SW,219,1.0,2.0,77,0.00,,,0.00,Wunderground v.1.15,2013-01-27 09:00:00,
2013-01-27 02:01:00,38.6,32.0,29.73,SSW,207,1.0,2.0,77,0.00,,,0.00,Wunderground v.1.15,2013-01-27 09:01:00,
2013-01-27 02:05:00,38.4,31.5,29.73,WSW,246,2.0,2.0,76,0.00,,,0.00,Wunderground v.1.15,2013-01-27 09:05:00,
2013-01-27 02:06:00,38.3,31.7,29.73,WSW,253,1.0,2.0,77,0.00,,,0.00,Wunderground v.1.15,2013-01-27 09:06:00,
2013-01-27 02:10:00,38.1,31.8,29.73,SW,214,2.0,2.0,78,0.00,,,0.00,Wunderground v.1.15,2013-01-27 09:10:00,
2013-01-27 02:11:00,38.0,31.4,29.73,WSW,243,2.0,2.0,77,0.00,,,0.00,Wunderground v.1.15,2013-01-27 09:11:00,
2013-01-27 02:15:00,38.1,31.8,29.72,WSW,248,2.0,2.0,78,0.00,,,0.00,Wunderground v.1.15,2013-01-27 09:15:00,
2013-01-27 02:16:00,38.1,31.8,29.72,WSW,248,2.0,2.0,78,0.00,,,0.00,Wunderground v.1.15,2013-01-27 09:16:00,
2013-01-27 02:20:00,38.0,31.4,29.73,SSW,207,2.0,2.0,77,0.00,,,0.00,Wunderground v.1.15,2013-01-27 09:20:00,
2013-01-27 02:21:00,38.0,31.4,29.73,SSW,201,1.0,2.0,77,0.00,,,0.00,Wunderground v.1.15,2013-01-27 09:21:00,
2013-01-27 02:22:00,38.0,31.4,29.73,SSW,193,1.0,2.0,77,0.00,,,0.00,Wunderground v.1.15,2013-01-27 09:22:00,
2013-01-27 02:25:00,37.8,31.6,29.72,South,176,2.0,2.0,78,0.00,,,0.00,Wunderground v.1.15,2013-01-27 09:25:00,
2013-01-27 02:26:00,37.8,31.6,29.72,South,183,2.0,2.0,78,0.00,,,0.00,Wunderground v.1.15,2013-01-27 09:26:00,
2013-01-27 02:27:00,37.7,31.5,29.72,SSE,167,2.0,3.0,78,0.00,,,0.00,Wunderground v.1.15,2013-01-27 09:27:00,
2013-01-27 02:30:00,37.5,31.3,29.73,SSW,210,1.0,2.0,78,0.00,,,0.00,Wunderground v.1.15,2013-01-27 09:30:00,
2013-01-27 02:31:00,37.5,31.3,29.73,WSW,245,2.0,2.0,78,0.00,,,0.00,Wunderground v.1.15,2013-01-27 09:31:00,
2013-01-27 02:32:00,37.4,30.8,29.72,SSW,212,2.0,2.0,77,0.00,,,0.00,Wunderground v.1.15,2013-01-27 09:32:00,
2013-01-27 02:35:00,37.1,31.2,29.73,SSW,206,2.0,2.0,79,0.00,,,0.00,Wunderground v.1.15,2013-01-27 09:35:00,
2013-01-27 02:36:00,37.2,31.3,29.73,SSW,198,1.0,2.0,79,0.00,,,0.00,Wunderground v.1.15,2013-01-27 09:36:00,
2013-01-27 02:37:00,37.2,31.3,29.73,SSW,197,2.0,2.0,79,0.00,,,0.00,Wunderground v.1.15,2013-01-27 09:37:00,
2013-01-27 02:40:00,37.2,31.3,29.72,South,187,2.0,2.0,79,0.00,,,0.00,Wunderground v.1.15,2013-01-27 09:40:00,
2013-01-27 02:41:00,37.2,31.3,29.72,South,187,2.0,2.0,79,0.00,,,0.00,Wunderground v.1.15,2013-01-27 09:41:00,
2013-01-27 02:42:00,37.2,31.3,29.72,SSW,211,2.0,3.0,79,0.00,,,0.00,Wunderground v.1.15,2013-01-27 09:42:00,
2013-01-27 02:45:00,37.1,30.9,29.72,WSW,248,4.0,4.0,78,0.00,,,0.00,Wunderground v.1.15,2013-01-27 09:45:00,
2013-01-27 02:46:00,37.1,30.9,29.72,WSW,248,3.0,4.0,78,0.00,,,0.00,Wunderground v.1.15,2013-01-27 09:46:00,
2013-01-27 02:47:00,37.1,31.2,29.72,SSW,206,2.0,4.0,79,0.00,,,0.00,Wunderground v.1.15,2013-01-27 09:47:00,
2013-01-27 02:50:00,37.1,31.5,29.73,SSW,204,2.0,2.0,80,0.00,,,0.00,Wunderground v.1.15,2013-01-27 09:50:00,
2013-01-27 02:51:00,37.2,31.6,29.73,SW,217,1.0,2.0,80,0.00,,,0.00,Wunderground v.1.15,2013-01-27 09:51:00,
2013-01-27 02:52:00,37.2,31.6,29.73,SW,217,1.0,2.0,80,0.00,,,0.00,Wunderground v.1.15,2013-01-27 09:52:00,
2013-01-27 02:53:00,37.3,31.7,29.73,SW,217,1.0,2.0,80,0.00,,,0.00,Wunderground v.1.15,2013-01-27 09:53:00,
2013-01-27 02:56:00,37.4,31.5,29.73,South,184,2.0,3.0,79,0.00,,,0.00,Wunderground v.1.15,2013-01-27 09:56:00,
2013-01-27 02:57:00,37.4,31.5,29.73,SSW,197,3.0,3.0,79,0.00,,,0.00,Wunderground v.1.15,2013-01-27 09:57:00,
2013-01-27 02:58:00,37.4,31.5,29.73,SW,222,2.0,3.0,79,0.00,,,0.00,Wunderground v.1.15,2013-01-27 09:58:00,
2013-01-27 03:01:00,37.4,31.5,29.73,SW,216,1.0,2.0,79,0.00,,,0.00,Wunderground v.1.15,2013-01-27 10:01:00,
2013-01-27 03:02:00,37.4,31.5,29.73,South,186,2.0,2.0,79,0.00,,,0.00,Wunderground v.1.15,2013-01-27 10:02:00,
2013-01-27 03:03:00,37.4,31.5,29.72,South,190,2.0,2.0,79,0.00,,,0.00,Wunderground v.1.15,2013-01-27 10:03:00,
2013-01-27 03:06:00,37.4,31.2,29.72,WSW,240,2.0,2.0,78,0.00,,,0.00,Wunderground v.1.15,2013-01-27 10:06:00,
2013-01-27 03:07:00,37.3,31.4,29.73,WSW,249,2.0,3.0,79,0.00,,,0.00,Wunderground v.1.15,2013-01-27 10:07:00,
2013-01-27 03:08:00,37.3,31.4,29.73,SW,235,2.0,3.0,79,0.00,,,0.00,Wunderground v.1.15,2013-01-27 10:08:00,
2013-01-27 03:11:00,37.3,31.4,29.72,SSW,200,1.0,2.0,79,0.00,,,0.00,Wunderground v.1.15,2013-01-27 10:11:00,
2013-01-27 03:12:00,37.3,31.4,29.72,SSW,210,2.0,2.0,79,0.00,,,0.00,Wunderground v.1.15,2013-01-27 10:12:00,
2013-01-27 03:13:00,37.3,31.4,29.72,SW,221,2.0,2.0,79,0.00,,,0.00,Wunderground v.1.15,2013-01-27 10:13:00,
2013-01-27 03:16:00,37.3,31.4,29.72,SW,222,1.0,2.0,79,0.00,,,0.00,Wunderground v.1.15,2013-01-27 10:16:00,
2013-01-27 03:17:00,37.3,31.7,29.73,SSW,212,2.0,2.0,80,0.00,,,0.00,Wunderground v.1.15,2013-01-27 10:17:00,
2013-01-27 03:18:00,37.3,31.4,29.73,WSW,250,2.0,2.0,79,0.00,,,0.00,Wunderground v.1.15,2013-01-27 10:18:00,
2013-01-27 03:21:00,37.2,31.3,29.72,WSW,257,5.0,5.0,79,0.00,,,0.00,Wunderground v.1.15,2013-01-27 10:21:00,
2013-01-27 03:22:00,37.2,31.3,29.72,WSW,257,5.0,5.0,79,0.00,,,0.00,Wunderground v.1.15,2013-01-27 10:22:00,
2013-01-27 03:23:00,37.1,31.2,29.72,SW,233,3.0,5.0,79,0.00,,,0.00,Wunderground v.1.15,2013-01-27 10:23:00,
2013-01-27 03:26:00,36.9,31.0,29.72,WSW,243,3.0,5.0,79,0.00,,,0.00,Wunderground v.1.15,2013-01-27 10:26:00,
2013-01-27 03:27:00,36.9,31.0,29.72,SW,231,2.0,5.0,79,0.00,,,0.00,Wunderground v.1.15,2013-01-27 10:27:00,
2013-01-27 03:28:00,36.9,31.3,29.72,WSW,240,2.0,5.0,80,0.00,,,0.00,Wunderground v.1.15,2013-01-27 10:28:00,
2013-01-27 03:31:00,37.1,31.2,29.73,WSW,243,3.0,5.0,79,0.00,,,0.00,Wunderground v.1.15,2013-01-27 10:31:00,
2013-01-27 03:32:00,37.1,31.2,29.72,WSW,256,4.0,5.0,79,0.00,,,0.00,Wunderground v.1.15,2013-01-27 10:32:00,
2013-01-27 03:33:00,37.0,30.8,29.72,West,260,4.0,5.0,78,0.00,,,0.00,Wunderground v.1.15,2013-01-27 10:33:00,
2013-01-27 03:36:00,36.7,30.8,29.72,SW,225,2.0,5.0,79,0.00,,,0.00,Wunderground v.1.15,2013-01-27 10:36:00,
2013-01-27 03:38:00,36.7,30.8,29.72,WSW,250,2.0,5.0,79,0.00,,,0.00,Wunderground v.1.15,2013-01-27 10:38:00,
2013-01-27 03:42:00,36.7,31.1,29.72,SW,235,4.0,4.0,80,0.00,,,0.00,Wunderground v.1.15,2013-01-27 10:42:00,
2013-01-27 03:43:00,36.8,31.2,29.72,SW,215,2.0,5.0,80,0.00,,,0.00,Wunderground v.1.15,2013-01-27 10:43:00,
2013-01-27 03:47:00,36.9,31.3,29.72,WSW,242,4.0,5.0,80,0.00,,,0.00,Wunderground v.1.15,2013-01-27 10:47:00,
2013-01-27 03:48:00,36.9,31.3,29.72,WSW,249,4.0,5.0,80,0.00,,,0.00,Wunderground v.1.15,2013-01-27 10:48:00,
2013-01-27 03:52:00,36.7,30.5,29.72,West,259,5.0,6.0,78,0.00,,,0.00,Wunderground v.1.15,2013-01-27 10:52:00,
2013-01-27 03:53:00,36.4,30.2,29.72,West,260,5.0,6.0,78,0.00,,,0.00,Wunderground v.1.15,2013-01-27 10:53:00,
2013-01-27 03:57:00,36.1,30.5,29.72,SSW,212,3.0,6.0,80,0.00,,,0.00,Wunderground v.1.15,2013-01-27 10:57:00,
2013-01-27 03:58:00,36.1,30.8,29.72,SSW,204,4.0,6.0,81,0.00,,,0.00,Wunderground v.1.15,2013-01-27 10:58:00,
2013-01-27 03:59:00,36.1,30.8,29.72,South,188,3.0,6.0,81,0.00,,,0.00,Wunderground v.1.15,2013-01-27 10:59:00,
2013-01-27 04:02:00,36.3,30.7,29.72,WSW,256,4.0,5.0,80,0.00,,,0.00,Wunderground v.1.15,2013-01-27 11:02:00,
2013-01-27 04:03:00,36.2,30.3,29.72,WSW,256,6.0,6.0,79,0.00,,,0.00,Wunderground v.1.15,2013-01-27 11:03:00,
2013-01-27 04:04:00,36.1,30.2,29.72,WSW,256,5.0,6.0,79,0.00,,,0.00,Wunderground v.1.15,2013-01-27 11:04:00,
2013-01-27 04:07:00,36.1,30.8,29.72,SW,236,2.0,6.0,81,0.00,,,0.00,Wunderground v.1.15,2013-01-27 11:07:00,
2013-01-27 04:08:00,36.3,31.0,29.72,SW,225,2.0,6.0,81,0.00,,,0.00,Wunderground v.1.15,2013-01-27 11:08:00,
2013-01-27 04:09:00,36.3,31.0,29.72,SW,225,3.0,6.0,81,0.00,,,0.00,Wunderground v.1.15,2013-01-27 11:09:00,
2013-01-27 04:13:00,36.6,31.0,29.71,SW,236,1.0,4.0,80,0.00,,,0.00,Wunderground v.1.15,2013-01-27 11:13:00,
2013-01-27 04:14:00,36.5,30.6,29.71,WSW,246,2.0,4.0,79,0.00,,,0.00,Wunderground v.1.15,2013-01-27 11:14:00,
2013-01-27 04:18:00,36.3,30.7,29.72,SSW,200,5.0,5.0,80,0.00,,,0.00,Wunderground v.1.15,2013-01-27 11:18:00,
2013-01-27 04:19:00,36.2,30.9,29.72,SSW,206,5.0,6.0,81,0.00,,,0.00,Wunderground v.1.15,2013-01-27 11:19:00,
2013-01-27 04:23:00,36.1,30.8,29.72,SSW,195,2.0,4.0,81,0.00,,,0.00,Wunderground v.1.15,2013-01-27 11:23:00,
2013-01-27 04:24:00,36.1,30.8,29.72,South,190,3.0,4.0,81,0.00,,,0.00,Wunderground v.1.15,2013-01-27 11:24:00,
2013-01-27 04:28:00,35.9,30.6,29.72,WSW,253,3.0,4.0,81,0.00,,,0.00,Wunderground v.1.15,2013-01-27 11:28:00,
2013-01-27 04:29:00,35.9,30.3,29.72,West,260,5.0,6.0,80,0.00,,,0.00,Wunderground v.1.15,2013-01-27 11:29:00,
2013-01-27 04:33:00,35.8,30.2,29.71,WSW,250,2.0,4.0,80,0.00,,,0.00,Wunderground v.1.15,2013-01-27 11:33:00,
2013-01-27 04:34:00,35.7,30.1,29.71,WSW,255,3.0,4.0,80,0.00,,,0.00,Wunderground v.1.15,2013-01-27 11:34:00,
2013-01-27 04:38:00,35.7,30.4,29.71,WSW,238,3.0,4.0,81,0.00,,,0.00,Wunderground v.1.15,2013-01-27 11:38:00,
2013-01-27 04:39:00,35.7,30.4,29.71,SW,233,3.0,4.0,81,0.00,,,0.00,Wunderground v.1.15,2013-01-27 11:39:00,
2013-01-27 04:44:00,35.5,30.2,29.71,SW,228,3.0,5.0,81,0.00,,,0.00,Wunderground v.1.15,2013-01-27 11:44:00,
2013-01-27 04:49:00,35.6,30.6,29.72,WSW,250,4.0,5.0,82,0.00,,,0.00,Wunderground v.1.15,2013-01-27 11:49:00,
2013-01-27 04:50:00,35.7,30.4,29.71,WSW,255,4.0,4.0,81,0.00,,,0.00,Wunderground v.1.15,2013-01-27 11:50:00,
2013-01-27 04:54:00,35.7,30.4,29.72,WSW,238,5.0,5.0,81,0.00,,,0.00,Wunderground v.1.15,2013-01-27 11:54:00,
2013-01-27 04:55:00,35.7,30.4,29.72,SSW,195,2.0,5.0,81,0.00,,,0.00,Wunderground v.1.15,2013-01-27 11:55:00,
2013-01-27 04:59:00,35.5,30.2,29.72,South,186,2.0,5.0,81,0.00,,,0.00,Wunderground v.1.15,2013-01-27 11:59:00,
2013-01-27 05:00:00,35.5,30.5,29.72,WSW,240,3.0,3.0,82,0.00,,,0.00,Wunderground v.1.15,2013-01-27 12:00:00,
2013-01-27 05:04:00,35.3,30.1,29.72,WSW,253,4.0,4.0,81,0.00,,,0.00,Wunderground v.1.15,2013-01-27 12:04:00,
2013-01-27 05:05:00,35.3,30.4,29.72,WSW,250,4.0,4.0,82,0.00,,,0.00,Wunderground v.1.15,2013-01-27 12:05:00,
2013-01-27 05:09:00,35.2,30.0,29.72,SW,219,3.0,4.0,81,0.00,,,0.00,Wunderground v.1.15,2013-01-27 12:09:00,
2013-01-27 05:10:00,35.1,29.9,29.72,WSW,243,3.0,4.0,81,0.00,,,0.00,Wunderground v.1.15,2013-01-27 12:10:00,
2013-01-27 05:14:00,35.6,30.6,29.72,WSW,250,3.0,6.0,82,0.00,,,0.00,Wunderground v.1.15,2013-01-27 12:14:00,
2013-01-27 05:15:00,35.6,30.6,29.72,West,267,4.0,6.0,82,0.00,,,0.00,Wunderground v.1.15,2013-01-27 12:15:00,
2013-01-27 05:19:00,36.2,30.9,29.72,SSW,201,2.0,6.0,81,0.00,,,0.00,Wunderground v.1.15,2013-01-27 12:19:00,
2013-01-27 05:20:00,36.2,30.6,29.72,SSW,197,4.0,4.0,80,0.00,,,0.00,Wunderground v.1.15,2013-01-27 12:20:00,
2013-01-27 05:24:00,36.1,30.8,29.72,SSW,208,3.0,5.0,81,0.00,,,0.00,Wunderground v.1.15,2013-01-27 12:24:00,
2013-01-27 05:25:00,36.1,30.8,29.72,SSW,204,2.0,5.0,81,0.00,,,0.00,Wunderground v.1.15,2013-01-27 12:25:00,
2013-01-27 05:26:00,36.1,30.8,29.72,WSW,238,3.0,5.0,81,0.00,,,0.00,Wunderground v.1.15,2013-01-27 12:26:00,
2013-01-27 05:29:00,36.2,30.9,29.73,WSW,256,4.0,5.0,81,0.00,,,0.00,Wunderground v.1.15,2013-01-27 12:29:00,
2013-01-27 05:30:00,36.3,31.0,29.73,West,280,2.0,3.0,81,0.00,,,0.00,Wunderground v.1.15,2013-01-27 12:30:00,
2013-01-27 05:31:00,36.4,31.1,29.73,West,262,1.0,4.0,81,0.00,,,0.00,Wunderground v.1.15,2013-01-27 12:31:00,
2013-01-27 05:35:00,36.7,31.4,29.73,West,281,4.0,5.0,81,0.00,,,0.00,Wunderground v.1.15,2013-01-27 12:35:00,
2013-01-27 05:36:00,37.1,31.8,29.73,NW,307,3.0,5.0,81,0.00,,,0.00,Wunderground v.1.15,2013-01-27 12:36:00,
2013-01-27 05:40:00,37.7,31.8,29.72,NNE,23,0.0,2.0,79,0.00,,,0.00,Wunderground v.1.15,2013-01-27 12:40:00,
2013-01-27 05:42:00,37.8,31.6,29.73,SE,124,1.0,2.0,78,0.00,,,0.00,Wunderground v.1.15,2013-01-27 12:42:00,
2013-01-27 05:45:00,37.8,31.2,29.73,SSW,207,2.0,2.0,77,0.00,,,0.00,Wunderground v.1.15,2013-01-27 12:45:00,
2013-01-27 05:46:00,37.7,31.1,29.73,SSE,150,3.0,3.0,77,0.00,,,0.00,Wunderground v.1.15,2013-01-27 12:46:00,
2013-01-27 05:47:00,37.5,30.9,29.73,ESE,120,0.0,3.0,77,0.00,,,0.00,Wunderground v.1.15,2013-01-27 12:47:00,
2013-01-27 05:50:00,37.2,30.7,29.73,ESE,120,0.0,1.0,77,0.00,,,0.00,Wunderground v.1.15,2013-01-27 12:50:00,
2013-01-27 05:51:00,37.2,30.7,29.73,ESE,120,0.0,1.0,77,0.00,,,0.00,Wunderground v.1.15,2013-01-27 12:51:00,
2013-01-27 05:53:00,37.0,30.8,29.73,ESE,120,0.0,1.0,78,0.00,,,0.00,Wunderground v.1.15,2013-01-27 12:53:00,
2013-01-27 05:55:00,36.8,30.9,29.73,WSW,240,4.0,5.0,79,0.00,,,0.00,Wunderground v.1.15,2013-01-27 12:55:00,
2013-01-27 05:56:00,36.8,30.9,29.73,West,262,5.0,6.0,79,0.00,,,0.00,Wunderground v.1.15,2013-01-27 12:56:00,
2013-01-27 05:58:00,36.7,30.8,29.73,WSW,256,6.0,6.0,79,0.00,,,0.00,Wunderground v.1.15,2013-01-27 12:58:00,
2013-01-27 06:00:00,36.7,31.1,29.73,West,264,4.0,4.0,80,0.00,,,0.00,Wunderground v.1.15,2013-01-27 13:00:00,
2013-01-27 06:01:00,36.7,31.1,29.73,WSW,256,3.0,4.0,80,0.00,,,0.00,Wunderground v.1.15,2013-01-27 13:01:00,
2013-01-27 06:03:00,36.7,30.8,29.73,West,264,1.0,4.0,79,0.00,,,0.00,Wunderground v.1.15,2013-01-27 13:03:00,
2013-01-27 06:05:00,36.8,30.9,29.73,NW,325,2.0,4.0,79,0.00,,,0.00,Wunderground v.1.15,2013-01-27 13:05:00,
2013-01-27 06:06:00,36.8,30.9,29.73,West,281,1.0,4.0,79,0.00,,,0.00,Wunderground v.1.15,2013-01-27 13:06:00,
2013-01-27 06:09:00,37.1,31.2,29.73,NE,46,1.0,4.0,79,0.00,,,0.00,Wunderground v.1.15,2013-01-27 13:09:00,
2013-01-27 06:10:00,37.2,31.3,29.73,NE,43,0.0,2.0,79,0.00,,,0.00,Wunderground v.1.15,2013-01-27 13:10:00,
2013-01-27 06:11:00,37.3,31.4,29.74,SE,141,2.0,2.0,79,0.00,,,0.00,Wunderground v.1.15,2013-01-27 13:11:00,
2013-01-27 06:12:00,37.3,31.1,29.74,SE,145,1.0,2.0,78,0.00,,,0.00,Wunderground v.1.15,2013-01-27 13:12:00,
2013-01-27 06:14:00,37.3,31.1,29.74,WSW,255,2.0,2.0,78,0.00,,,0.00,Wunderground v.1.15,2013-01-27 13:14:00,
2013-01-27 06:15:00,37.4,31.5,29.73,SSW,203,1.0,4.0,79,0.00,,,0.00,Wunderground v.1.15,2013-01-27 13:15:00,
2013-01-27 06:16:00,37.4,31.5,29.73,ESE,115,2.0,4.0,79,0.00,,,0.00,Wunderground v.1.15,2013-01-27 13:16:00,
2013-01-27 06:19:00,37.6,31.4,29.73,ESE,114,0.0,4.0,78,0.00,,,0.00,Wunderground v.1.15,2013-01-27 13:19:00,
2013-01-27 06:20:00,37.6,31.0,29.74,NW,318,0.0,5.0,77,0.00,,,0.00,Wunderground v.1.15,2013-01-27 13:20:00,
2013-01-27 06:21:00,37.5,30.9,29.74,NW,318,0.0,5.0,77,0.00,,,0.00,Wunderground v.1.15,2013-01-27 13:21:00,
2013-01-27 06:24:00,37.5,31.3,29.74,ESE,112,4.0,5.0,78,0.00,,,0.00,Wunderground v.1.15,2013-01-27 13:24:00,
2013-01-27 06:26:00,37.5,31.3,29.74,ESE,115,1.0,5.0,78,0.00,,,0.00,Wunderground v.1.15,2013-01-27 13:26:00,
2013-01-27 06:27:00,37.5,31.3,29.74,ESE,117,1.0,5.0,78,0.00,,,0.00,Wunderground v.1.15,2013-01-27 13:27:00,
2013-01-27 06:29:00,37.5,31.6,29.74,SW,231,4.0,7.0,79,0.00,,,0.00,Wunderground v.1.15,2013-01-27 13:29:00,
2013-01-27 06:31:00,37.9,32.0,29.74,SSW,194,2.0,4.0,79,0.00,,,0.00,Wunderground v.1.15,2013-01-27 13:31:00,
2013-01-27 06:32:00,38.1,31.8,29.74,SE,135,1.0,4.0,78,0.00,,,0.00,Wunderground v.1.15,2013-01-27 13:32:00,
2013-01-27 06:34:00,38.3,32.0,29.74,NE,46,0.0,4.0,78,0.00,,,0.00,Wunderground v.1.15,2013-01-27 13:34:00,
2013-01-27 06:36:00,38.1,31.2,29.74,NE,46,1.0,4.0,76,0.00,,,0.00,Wunderground v.1.15,2013-01-27 13:36:00,
2013-01-27 06:37:00,38.0,31.1,29.74,NE,45,0.0,4.0,76,0.00,,,0.00,Wunderground v.1.15,2013-01-27 13:37:00,
2013-01-27 06:39:00,37.7,31.1,29.74,SW,228,3.0,4.0,77,0.00,,,0.00,Wunderground v.1.15,2013-01-27 13:39:00,
2013-01-27 06:41:00,37.5,30.9,29.75,SSE,165,3.0,6.0,77,0.00,,,0.00,Wunderground v.1.15,2013-01-27 13:41:00,
2013-01-27 06:42:00,37.2,30.7,29.74,South,169,6.0,6.0,77,0.00,,,0.00,Wunderground v.1.15,2013-01-27 13:42:00,
2013-01-27 06:44:00,36.7,30.5,29.74,WSW,243,1.0,6.0,78,0.00,,,0.00,Wunderground v.1.15,2013-01-27 13:44:00,
2013-01-27 06:46:00,36.6,30.7,29.75,WSW,238,2.0,6.0,79,0.00,,,0.00,Wunderground v.1.15,2013-01-27 13:46:00,
2013-01-27 06:47:00,36.5,30.6,29.75,SW,233,1.0,6.0,79,0.00,,,0.00,Wunderground v.1.15,2013-01-27 13:47:00,
2013-01-27 06:49:00,36.5,30.6,29.74,WSW,249,4.0,6.0,79,0.00,,,0.00,Wunderground v.1.15,2013-01-27 13:49:00,
2013-01-27 06:51:00,36.5,30.6,29.74,SW,214,3.0,4.0,79,0.00,,,0.00,Wunderground v.1.15,2013-01-27 13:51:00,
2013-01-27 06:52:00,36.5,30.6,29.74,SW,229,2.0,4.0,79,0.00,,,0.00,Wunderground v.1.15,2013-01-27 13:52:00,
2013-01-27 06:54:00,36.4,30.8,29.74,WSW,246,4.0,4.0,80,0.00,,,0.00,Wunderground v.1.15,2013-01-27 13:54:00,
2013-01-27 06:56:00,36.5,30.9,29.74,WSW,253,4.0,4.0,80,0.00,,,0.00,Wunderground v.1.15,2013-01-27 13:56:00,
2013-01-27 06:57:00,36.5,30.6,29.74,West,269,4.0,6.0,79,0.00,,,0.00,Wunderground v.1.15,2013-01-27 13:57:00,
2013-01-27 06:59:00,36.3,30.7,29.74,WSW,240,3.0,6.0,80,0.00,,,0.00,Wunderground v.1.15,2013-01-27 13:59:00,
2013-01-27 07:01:00,36.1,30.5,29.75,WSW,250,3.0,4.0,80,0.00,,,0.00,Wunderground v.1.15,2013-01-27 14:01:00,
2013-01-27 07:02:00,36.0,30.4,29.75,West,267,4.0,4.0,80,0.00,,,0.00,Wunderground v.1.15,2013-01-27 14:02:00,
2013-01-27 07:03:00,36.0,30.4,29.75,WSW,253,4.0,5.0,80,0.00,,,0.00,Wunderground v.1.15,2013-01-27 14:03:00,
2013-01-27 07:04:00,36.0,30.7,29.74,SW,228,6.0,6.0,81,0.00,,,0.00,Wunderground v.1.15,2013-01-27 14:04:00,
2013-01-27 07:06:00,36.1,31.1,29.75,West,259,5.0,6.0,82,0.00,,,0.00,Wunderground v.1.15,2013-01-27 14:06:00,
2013-01-27 07:07:00,36.2,31.2,29.75,West,267,2.0,6.0,82,0.00,,,0.00,Wunderground v.1.15,2013-01-27 14:07:00,
2013-01-27 07:08:00,36.3,31.3,29.75,West,262,3.0,6.0,82,0.00,,,0.00,Wunderground v.1.15,2013-01-27 14:08:00,
2013-01-27 07:09:00,36.2,30.6,29.75,SW,231,5.0,6.0,80,0.00,,,0.00,Wunderground v.1.15,2013-01-27 14:09:00,
2013-01-27 07:11:00,36.1,31.1,29.74,SW,226,3.0,4.0,82,0.00,,,0.00,Wunderground v.1.15,2013-01-27 14:11:00,
2013-01-27 07:13:00,36.1,30.8,29.75,SW,221,4.0,4.0,81,0.00,,,0.00,Wunderground v.1.15,2013-01-27 14:13:00,
2013-01-27 07:14:00,35.9,30.6,29.75,South,180,3.0,5.0,81,0.00,,,0.00,Wunderground v.1.15,2013-01-27 14:14:00,
2013-01-27 07:16:00,35.8,30.5,29.75,SW,221,2.0,5.0,81,0.00,,,0.00,Wunderground v.1.15,2013-01-27 14:16:00,
2013-01-27 07:18:00,35.7,30.4,29.75,SSW,212,2.0,5.0,81,0.00,,,0.00,Wunderground v.1.15,2013-01-27 14:18:00,
2013-01-27 07:20:00,35.6,30.6,29.75,WSW,252,2.0,3.0,82,0.00,,,0.00,Wunderground v.1.15,2013-01-27 14:20:00,
2013-01-27 07:22:00,35.7,31.0,29.76,SW,233,3.0,4.0,83,0.00,,,0.00,Wunderground v.1.15,2013-01-27 14:22:00,
2013-01-27 07:23:00,35.8,30.8,29.75,WSW,254,3.0,4.0,82,0.00,,,0.00,Wunderground v.1.15,2013-01-27 14:23:00,
2013-01-27 07:25:00,35.8,30.8,29.75,SSW,194,2.0,4.0,82,0.00,,,0.00,Wunderground v.1.15,2013-01-27 14:25:00,
2013-01-27 07:27:00,35.9,30.9,29.75,SSW,194,2.0,4.0,82,0.00,,,0.00,Wunderground v.1.15,2013-01-27 14:27:00,
2013-01-27 07:28:00,35.9,30.9,29.75,WSW,240,2.0,4.0,82,0.00,,,0.00,Wunderground v.1.15,2013-01-27 14:28:00,
2013-01-27 07:30:00,36.0,31.0,29.75,SSW,212,2.0,3.0,82,0.00,,,0.00,Wunderground v.1.15,2013-01-27 14:30:00,
2013-01-27 07:32:00,36.1,31.1,29.75,South,191,2.0,3.0,82,0.00,,,0.00,Wunderground v.1.15,2013-01-27 14:32:00,
2013-01-27 07:33:00,36.2,31.2,29.75,SSE,166,4.0,4.0,82,0.00,,,0.00,Wunderground v.1.15,2013-01-27 14:33:00,
2013-01-27 07:36:00,36.2,31.2,29.75,SSE,166,3.0,5.0,82,0.00,,,0.00,Wunderground v.1.15,2013-01-27 14:36:00,
2013-01-27 07:37:00,36.3,31.3,29.75,SSW,210,4.0,5.0,82,0.00,,,0.00,Wunderground v.1.15,2013-01-27 14:37:00,
2013-01-27 07:38:00,36.3,31.3,29.75,SSW,204,3.0,6.0,82,0.00,,,0.00,Wunderground v.1.15,2013-01-27 14:38:00,
2013-01-27 07:41:00,36.4,31.4,29.75,WSW,243,2.0,3.0,82,0.00,,,0.00,Wunderground v.1.15,2013-01-27 14:41:00,
2013-01-27 07:42:00,36.4,31.4,29.75,SSW,204,1.0,3.0,82,0.00,,,0.00,Wunderground v.1.15,2013-01-27 14:42:00,
2013-01-27 07:43:00,36.5,31.5,29.75,SW,219,2.0,3.0,82,0.00,,,0.00,Wunderground v.1.15,2013-01-27 14:43:00,
2013-01-27 07:46:00,36.7,32.0,29.75,SW,217,1.0,4.0,83,0.00,,,0.00,Wunderground v.1.15,2013-01-27 14:46:00,
2013-01-27 07:47:00,36.9,32.2,29.75,SW,222,0.0,4.0,83,0.00,,,0.00,Wunderground v.1.15,2013-01-27 14:47:00,
2013-01-27 07:48:00,37.0,32.0,29.75,SW,222,0.0,4.0,82,0.00,,,0.00,Wunderground v.1.15,2013-01-27 14:48:00,
2013-01-27 07:51:00,37.3,32.3,29.76,West,268,2.0,4.0,82,0.00,,,0.00,Wunderground v.1.15,2013-01-27 14:51:00,
2013-01-27 07:52:00,37.6,32.6,29.75,SW,228,2.0,4.0,82,0.00,,,0.00,Wunderground v.1.15,2013-01-27 14:52:00,
2013-01-27 07:53:00,37.7,32.4,29.75,SSW,201,2.0,4.0,81,0.00,,,0.00,Wunderground v.1.15,2013-01-27 14:53:00,
2013-01-27 07:56:00,38.0,32.7,29.75,SE,145,1.0,4.0,81,0.00,,,0.00,Wunderground v.1.15,2013-01-27 14:56:00,
2013-01-27 07:58:00,38.1,32.8,29.75,SSE,148,0.0,4.0,81,0.00,,,0.00,Wunderground v.1.15,2013-01-27 14:58:00,
2013-01-27 07:59:00,38.2,32.9,29.75,South,184,1.0,4.0,81,0.00,,,0.00,Wunderground v.1.15,2013-01-27 14:59:00,
2013-01-27 08:01:00,38.4,32.8,29.75,SSW,200,2.0,2.0,80,0.00,,,0.00,Wunderground v.1.15,2013-01-27 15:01:00,
2013-01-27 08:03:00,38.5,32.9,29.75,SSW,200,3.0,4.0,80,0.00,,,0.00,Wunderground v.1.15,2013-01-27 15:03:00,
2013-01-27 08:04:00,38.7,33.1,29.75,SW,224,2.0,4.0,80,0.00,,,0.00,Wunderground v.1.15,2013-01-27 15:04:00,
2013-01-27 08:06:00,38.8,33.2,29.75,SW,231,2.0,4.0,80,0.00,,,0.00,Wunderground v.1.15,2013-01-27 15:06:00,
2013-01-27 08:08:00,39.0,33.0,29.75,South,188,3.0,4.0,79,0.00,,,0.00,Wunderground v.1.15,2013-01-27 15:08:00,
2013-01-27 08:09:00,39.1,33.1,29.75,SSW,200,2.0,4.0,79,0.00,,,0.00,Wunderground v.1.15,2013-01-27 15:09:00,
2013-01-27 08:11:00,39.3,33.3,29.75,West,264,2.0,3.0,79,0.00,,,0.00,Wunderground v.1.15,2013-01-27 15:11:00,
2013-01-27 08:13:00,39.4,33.1,29.75,WSW,257,1.0,3.0,78,0.00,,,0.00,Wunderground v.1.15,2013-01-27 15:13:00,
2013-01-27 08:14:00,39.5,33.2,29.75,WSW,257,0.0,3.0,78,0.00,,,0.00,Wunderground v.1.15,2013-01-27 15:14:00,
2013-01-27 08:16:00,39.7,33.4,29.75,WSW,248,1.0,3.0,78,0.00,,,0.00,Wunderground v.1.15,2013-01-27 15:16:00,
2013-01-27 08:18:00,39.8,33.5,29.75,SW,226,0.0,3.0,78,0.00,,,0.00,Wunderground v.1.15,2013-01-27 15:18:00,
2013-01-27 08:19:00,39.9,33.3,29.75,West,267,1.0,3.0,77,0.00,,,0.00,Wunderground v.1.15,2013-01-27 15:19:00,
2013-01-27 08:21:00,40.0,33.4,29.75,West,267,0.0,1.0,77,0.00,,,0.00,Wunderground v.1.15,2013-01-27 15:21:00,
2013-01-27 08:23:00,40.1,33.5,29.75,West,267,0.0,1.0,77,0.00,,,0.00,Wunderground v.1.15,2013-01-27 15:23:00,
2013-01-27 08:24:00,40.1,33.1,29.75,SSW,213,1.0,1.0,76,0.00,,,0.00,Wunderground v.1.15,2013-01-27 15:24:00,
2013-01-27 08:27:00,40.2,33.2,29.75,WSW,243,2.0,4.0,76,0.00,,,0.00,Wunderground v.1.15,2013-01-27 15:27:00,
2013-01-27 08:28:00,40.2,33.2,29.75,West,259,2.0,4.0,76,0.00,,,0.00,Wunderground v.1.15,2013-01-27 15:28:00,
2013-01-27 08:29:00,40.2,33.2,29.75,WSW,248,0.0,4.0,76,0.00,,,0.00,Wunderground v.1.15,2013-01-27 15:29:00,
2013-01-27 08:32:00,40.2,33.2,29.75,East,99,0.0,2.0,76,0.00,,,0.00,Wunderground v.1.15,2013-01-27 15:32:00,
2013-01-27 08:33:00,40.3,33.3,29.75,East,99,0.0,2.0,76,0.00,,,0.00,Wunderground v.1.15,2013-01-27 15:33:00,
2013-01-27 08:34:00,40.3,33.3,29.75,East,99,0.0,2.0,76,0.00,,,0.00,Wunderground v.1.15,2013-01-27 15:34:00,
2013-01-27 08:37:00,40.3,33.3,29.75,East,98,0.0,2.0,76,0.00,,,0.00,Wunderground v.1.15,2013-01-27 15:37:00,
2013-01-27 08:38:00,40.4,33.8,29.75,East,98,0.0,2.0,77,0.00,,,0.00,Wunderground v.1.15,2013-01-27 15:38:00,
2013-01-27 08:39:00,40.5,33.9,29.75,East,98,0.0,2.0,77,0.00,,,0.00,Wunderground v.1.15,2013-01-27 15:39:00,
2013-01-27 08:42:00,40.8,33.8,29.75,SSW,194,2.0,3.0,76,0.00,,,0.00,Wunderground v.1.15,2013-01-27 15:42:00,
2013-01-27 08:44:00,41.0,33.7,29.75,SSW,192,2.0,3.0,75,0.00,,,0.00,Wunderground v.1.15,2013-01-27 15:44:00,
2013-01-27 08:45:00,41.1,33.8,29.75,SSW,199,2.0,3.0,75,0.00,,,0.00,Wunderground v.1.15,2013-01-27 15:45:00,
2013-01-27 08:47:00,41.5,34.2,29.74,ESE,102,5.0,5.0,75,0.00,,,0.00,Wunderground v.1.15,2013-01-27 15:47:00,
2013-01-27 08:49:00,42.0,34.3,29.74,ENE,68,3.0,5.0,74,0.00,,,0.00,Wunderground v.1.15,2013-01-27 15:49:00,
2013-01-27 08:50:00,42.2,34.2,29.74,ENE,61,3.0,3.0,73,0.00,,,0.00,Wunderground v.1.15,2013-01-27 15:50:00,
2013-01-27 08:52:00,42.8,34.7,29.76,NNW,340,5.0,5.0,73,0.00,,,0.00,Wunderground v.1.15,2013-01-27 15:52:00,
2013-01-27 08:54:00,43.0,34.2,29.76,NW,309,1.0,5.0,71,0.00,,,0.00,Wunderground v.1.15,2013-01-27 15:54:00,
2013-01-27 08:55:00,43.1,34.3,29.76,NNW,337,0.0,5.0,71,0.00,,,0.00,Wunderground v.1.15,2013-01-27 15:55:00,
2013-01-27 08:57:00,43.2,34.1,29.74,ENE,74,5.0,8.0,70,0.00,,,0.00,Wunderground v.1.15,2013-01-27 15:57:00,
2013-01-27 08:59:00,43.4,34.6,29.74,ENE,60,2.0,8.0,71,0.00,,,0.00,Wunderground v.1.15,2013-01-27 15:59:00,
2013-01-27 09:00:00,43.5,34.4,29.74,ENE,57,1.0,4.0,70,0.00,,,0.00,Wunderground v.1.15,2013-01-27 16:00:00,
2013-01-27 09:03:00,43.8,34.3,29.75,NW,321,5.0,6.0,69,0.00,,,0.00,Wunderground v.1.15,2013-01-27 16:03:00,
2013-01-27 09:04:00,43.9,34.0,29.75,NW,326,1.0,6.0,68,0.00,,,0.00,Wunderground v.1.15,2013-01-27 16:04:00,
2013-01-27 09:05:00,43.9,34.0,29.75,NW,314,0.0,6.0,68,0.00,,,0.00,Wunderground v.1.15,2013-01-27 16:05:00,
2013-01-27 09:08:00,44.2,34.7,29.75,East,82,1.0,6.0,69,0.00,,,0.00,Wunderground v.1.15,2013-01-27 16:08:00,
2013-01-27 09:09:00,44.4,34.5,29.75,East,82,1.0,6.0,68,0.00,,,0.00,Wunderground v.1.15,2013-01-27 16:09:00,
2013-01-27 09:10:00,44.5,34.6,29.75,East,82,1.0,2.0,68,0.00,,,0.00,Wunderground v.1.15,2013-01-27 16:10:00,
2013-01-27 09:13:00,44.7,34.4,29.75,ENE,61,1.0,6.0,67,0.00,,,0.00,Wunderground v.1.15,2013-01-27 16:13:00,
2013-01-27 09:14:00,44.8,34.5,29.75,NE,51,1.0,6.0,67,0.00,,,0.00,Wunderground v.1.15,2013-01-27 16:14:00,
2013-01-27 09:15:00,44.8,34.5,29.75,NE,51,1.0,6.0,67,0.00,,,0.00,Wunderground v.1.15,2013-01-27 16:15:00,
2013-01-27 09:18:00,45.0,34.3,29.74,ENE,74,2.0,6.0,66,0.00,,,0.00,Wunderground v.1.15,2013-01-27 16:18:00,
2013-01-27 09:20:00,45.1,34.4,29.75,ENE,63,1.0,2.0,66,0.00,,,0.00,Wunderground v.1.15,2013-01-27 16:20:00,
2013-01-27 09:23:00,45.4,34.7,29.76,North,8,2.0,4.0,66,0.00,,,0.00,Wunderground v.1.15,2013-01-27 16:23:00,
2013-01-27 09:25:00,45.5,34.8,29.75,East,93,4.0,4.0,66,0.00,,,0.00,Wunderground v.1.15,2013-01-27 16:25:00,
2013-01-27 09:28:00,45.7,34.6,29.75,East,81,2.0,4.0,65,0.00,,,0.00,Wunderground v.1.15,2013-01-27 16:28:00,
2013-01-27 09:30:00,45.9,34.4,29.75,East,88,3.0,3.0,64,0.00,,,0.00,Wunderground v.1.15,2013-01-27 16:30:00,
2013-01-27 09:31:00,45.9,34.4,29.75,ENE,77,2.0,3.0,64,0.00,,,0.00,Wunderground v.1.15,2013-01-27 16:31:00,
2013-01-27 09:33:00,46.0,34.5,29.75,ESE,102,1.0,3.0,64,0.00,,,0.00,Wunderground v.1.15,2013-01-27 16:33:00,
2013-01-27 09:35:00,46.0,34.1,29.75,NNE,30,5.0,8.0,63,0.00,,,0.00,Wunderground v.1.15,2013-01-27 16:35:00,
2013-01-27 09:36:00,46.0,34.1,29.75,NNE,22,5.0,8.0,63,0.00,,,0.00,Wunderground v.1.15,2013-01-27 16:36:00,
2013-01-27 09:38:00,45.7,33.8,29.76,NE,40,5.0,8.0,63,0.00,,,0.00,Wunderground v.1.15,2013-01-27 16:38:00,
2013-01-27 09:41:00,45.5,33.6,29.76,NE,53,4.0,5.0,63,0.00,,,0.00,Wunderground v.1.15,2013-01-27 16:41:00,
2013-01-27 09:44:00,45.2,33.7,29.76,NNE,25,5.0,6.0,64,0.00,,,0.00,Wunderground v.1.15,2013-01-27 16:44:00,
2013-01-27 09:46:00,45.0,33.5,29.76,NE,49,3.0,6.0,64,0.00,,,0.00,Wunderground v.1.15,2013-01-27 16:46:00,
2013-01-27 09:49:00,44.8,33.4,29.76,North,350,2.0,6.0,64,0.00,,,0.00,Wunderground v.1.15,2013-01-27 16:49:00,
2013-01-27 09:51:00,44.7,33.3,29.76,NNW,341,2.0,3.0,64,0.00,,,0.00,Wunderground v.1.15,2013-01-27 16:51:00,
2013-01-27 09:54:00,44.8,33.7,29.76,NW,307,4.0,6.0,65,0.00,,,0.00,Wunderground v.1.15,2013-01-27 16:54:00,
2013-01-27 09:56:00,45.0,33.9,29.76,NNW,329,2.0,6.0,65,0.00,,,0.00,Wunderground v.1.15,2013-01-27 16:56:00,
2013-01-27 09:58:00,45.2,33.7,29.76,WSW,243,8.0,8.0,64,0.00,,,0.00,Wunderground v.1.15,2013-01-27 16:58:00,
2013-01-27 09:59:00,45.3,33.8,29.76,WSW,257,4.0,8.0,64,0.00,,,0.00,Wunderground v.1.15,2013-01-27 16:59:00,
2013-01-27 10:01:00,45.3,33.8,29.76,WSW,240,3.0,6.0,64,0.00,,,0.00,Wunderground v.1.15,2013-01-27 17:01:00,
2013-01-27 10:03:00,45.6,34.1,29.75,SSW,207,2.0,6.0,64,0.00,,,0.00,Wunderground v.1.15,2013-01-27 17:03:00,
2013-01-27 10:04:00,45.7,34.2,29.75,SSW,203,2.0,6.0,64,0.00,,,0.00,Wunderground v.1.15,2013-01-27 17:04:00,
2013-01-27 10:06:00,45.9,34.4,29.75,West,259,1.0,6.0,64,0.00,,,0.00,Wunderground v.1.15,2013-01-27 17:06:00,
2013-01-27 10:09:00,46.2,34.3,29.76,SSW,207,1.0,6.0,63,0.00,,,0.00,Wunderground v.1.15,2013-01-27 17:09:00,
2013-01-27 10:11:00,46.2,34.3,29.75,SW,225,0.0,3.0,63,0.00,,,0.00,Wunderground v.1.15,2013-01-27 17:11:00,
2013-01-27 10:14:00,46.3,34.0,29.76,West,276,3.0,3.0,62,0.00,,,0.00,Wunderground v.1.15,2013-01-27 17:14:00,
2013-01-27 10:16:00,46.1,33.8,29.76,SSW,201,2.0,4.0,62,0.00,,,0.00,Wunderground v.1.15,2013-01-27 17:16:00,
2013-01-27 10:19:00,46.1,34.2,29.76,SSE,155,1.0,4.0,63,0.00,,,0.00,Wunderground v.1.15,2013-01-27 17:19:00,
2013-01-27 10:21:00,46.1,33.8,29.75,SSW,195,2.0,2.0,62,0.00,,,0.00,Wunderground v.1.15,2013-01-27 17:21:00,
2013-01-27 10:24:00,46.3,34.0,29.76,SW,222,2.0,3.0,62,0.00,,,0.00,Wunderground v.1.15,2013-01-27 17:24:00,
2013-01-27 10:26:00,46.3,34.0,29.76,SSW,198,1.0,3.0,62,0.00,,,0.00,Wunderground v.1.15,2013-01-27 17:26:00,
2013-01-27 10:29:00,46.3,33.6,29.76,SSW,201,4.0,4.0,61,0.00,,,0.00,Wunderground v.1.15,2013-01-27 17:29:00,
2013-01-27 10:31:00,46.3,33.2,29.75,SE,129,1.0,4.0,60,0.00,,,0.00,Wunderground v.1.15,2013-01-27 17:31:00,
2013-01-27 10:34:00,46.3,33.6,29.76,SE,129,0.0,4.0,61,0.00,,,0.00,Wunderground v.1.15,2013-01-27 17:34:00,
2013-01-27 10:35:00,46.3,33.6,29.76,SE,130,0.0,4.0,61,0.00,,,0.00,Wunderground v.1.15,2013-01-27 17:35:00,
2013-01-27 10:36:00,46.3,33.6,29.76,SSW,212,2.0,4.0,61,0.00,,,0.00,Wunderground v.1.15,2013-01-27 17:36:00,
2013-01-27 10:40:00,46.6,34.3,29.76,SSW,211,3.0,3.0,62,0.00,,,0.00,Wunderground v.1.15,2013-01-27 17:40:00,
2013-01-27 10:41:00,46.7,34.0,29.76,SSW,204,4.0,6.0,61,0.00,,,0.00,Wunderground v.1.15,2013-01-27 17:41:00,
2013-01-27 10:45:00,47.2,34.0,29.76,SSE,156,1.0,6.0,60,0.00,,,0.00,Wunderground v.1.15,2013-01-27 17:45:00,
2013-01-27 10:46:00,47.4,34.2,29.76,SW,225,2.0,6.0,60,0.00,,,0.00,Wunderground v.1.15,2013-01-27 17:46:00,
2013-01-27 10:47:00,47.4,34.2,29.76,SSW,208,3.0,6.0,60,0.00,,,0.00,Wunderground v.1.15,2013-01-27 17:47:00,
2013-01-27 10:50:00,47.7,33.2,29.75,East,79,5.0,5.0,57,0.00,,,0.00,Wunderground v.1.15,2013-01-27 17:50:00,
2013-01-27 10:51:00,47.7,33.2,29.75,NE,49,5.0,7.0,57,0.00,,,0.00,Wunderground v.1.15,2013-01-27 17:51:00,
2013-01-27 10:52:00,47.7,33.2,29.75,ENE,64,4.0,7.0,57,0.00,,,0.00,Wunderground v.1.15,2013-01-27 17:52:00,
2013-01-27 10:55:00,47.8,33.3,29.75,NE,53,6.0,7.0,57,0.00,,,0.00,Wunderground v.1.15,2013-01-27 17:55:00,
2013-01-27 10:57:00,47.9,33.4,29.75,ENE,70,3.0,7.0,57,0.00,,,0.00,Wunderground v.1.15,2013-01-27 17:57:00,
2013-01-27 11:01:00,48.1,33.1,29.75,ESE,119,4.0,4.0,56,0.00,,,0.00,Wunderground v.1.15,2013-01-27 18:01:00,
2013-01-27 11:02:00,48.3,33.3,29.75,ESE,104,1.0,6.0,56,0.00,,,0.00,Wunderground v.1.15,2013-01-27 18:02:00,
2013-01-27 11:06:00,48.7,34.1,29.75,SW,222,6.0,6.0,57,0.00,,,0.00,Wunderground v.1.15,2013-01-27 18:06:00,
2013-01-27 11:07:00,48.9,33.9,29.75,South,190,2.0,6.0,56,0.00,,,0.00,Wunderground v.1.15,2013-01-27 18:07:00,
2013-01-27 11:11:00,49.0,34.0,29.75,SSW,210,6.0,8.0,56,0.00,,,0.00,Wunderground v.1.15,2013-01-27 18:11:00,
2013-01-27 11:12:00,49.0,33.5,29.75,SSW,210,3.0,8.0,55,0.00,,,0.00,Wunderground v.1.15,2013-01-27 18:12:00,
2013-01-27 11:16:00,49.2,33.7,29.75,SSE,163,3.0,8.0,55,0.00,,,0.00,Wunderground v.1.15,2013-01-27 18:16:00,
2013-01-27 11:17:00,49.4,33.9,29.74,SW,231,8.0,8.0,55,0.00,,,0.00,Wunderground v.1.15,2013-01-27 18:17:00,
2013-01-27 11:21:00,49.5,33.5,29.74,SSW,210,7.0,9.0,54,0.00,,,0.00,Wunderground v.1.15,2013-01-27 18:21:00,
2013-01-27 11:22:00,49.5,34.0,29.74,SW,218,6.0,9.0,55,0.00,,,0.00,Wunderground v.1.15,2013-01-27 18:22:00,
2013-01-27 11:26:00,49.4,33.4,29.74,SSW,207,6.0,12.0,54,0.00,,,0.00,Wunderground v.1.15,2013-01-27 18:26:00,
2013-01-27 11:27:00,49.3,33.3,29.74,South,176,6.0,12.0,54,0.00,,,0.00,Wunderground v.1.15,2013-01-27 18:27:00,
2013-01-27 11:31:00,49.3,33.8,29.74,West,280,3.0,7.0,55,0.00,,,0.00,Wunderground v.1.15,2013-01-27 18:31:00,
2013-01-27 11:32:00,49.4,33.9,29.74,WSW,243,3.0,7.0,55,0.00,,,0.00,Wunderground v.1.15,2013-01-27 18:32:00,
2013-01-27 11:33:00,49.5,34.0,29.74,WSW,249,4.0,7.0,55,0.00,,,0.00,Wunderground v.1.15,2013-01-27 18:33:00,
2013-01-27 11:36:00,49.5,33.5,29.74,SSE,165,4.0,10.0,54,0.00,,,0.00,Wunderground v.1.15,2013-01-27 18:36:00,
2013-01-27 11:37:00,49.5,34.0,29.74,SE,134,4.0,10.0,55,0.00,,,0.00,Wunderground v.1.15,2013-01-27 18:37:00,
2013-01-27 11:38:00,49.6,33.6,29.74,SE,141,7.0,10.0,54,0.00,,,0.00,Wunderground v.1.15,2013-01-27 18:38:00,
2013-01-27 11:41:00,49.3,33.3,29.74,SE,136,7.0,10.0,54,0.00,,,0.00,Wunderground v.1.15,2013-01-27 18:41:00,
2013-01-27 11:42:00,49.1,33.2,29.74,SE,138,6.0,10.0,54,0.00,,,0.00,Wunderground v.1.15,2013-01-27 18:42:00,
2013-01-27 11:43:00,49.0,33.1,29.74,SE,127,4.0,10.0,54,0.00,,,0.00,Wunderground v.1.15,2013-01-27 18:43:00,
2013-01-27 11:46:00,49.0,33.5,29.74,SE,134,4.0,10.0,55,0.00,,,0.00,Wunderground v.1.15,2013-01-27 18:46:00,
2013-01-27 11:47:00,49.0,33.5,29.74,East,87,2.0,10.0,55,0.00,,,0.00,Wunderground v.1.15,2013-01-27 18:47:00,
2013-01-27 11:48:00,49.1,33.6,29.74,SE,133,1.0,10.0,55,0.00,,,0.00,Wunderground v.1.15,2013-01-27 18:48:00,
2013-01-27 11:51:00,49.0,33.1,29.74,SSW,207,7.0,7.0,54,0.00,,,0.00,Wunderground v.1.15,2013-01-27 18:51:00,
2013-01-27 11:52:00,48.8,32.9,29.73,SSW,210,5.0,7.0,54,0.00,,,0.00,Wunderground v.1.15,2013-01-27 18:52:00,
2013-01-27 11:53:00,48.7,33.2,29.73,SSW,200,3.0,7.0,55,0.00,,,0.00,Wunderground v.1.15,2013-01-27 18:53:00,
2013-01-27 11:56:00,48.4,33.0,29.73,SSE,161,0.0,7.0,55,0.00,,,0.00,Wunderground v.1.15,2013-01-27 18:56:00,
2013-01-27 11:57:00,48.4,33.4,29.73,SSE,160,0.0,7.0,56,0.00,,,0.00,Wunderground v.1.15,2013-01-27 18:57:00,
2013-01-27 11:58:00,48.5,33.5,29.73,SSE,150,1.0,7.0,56,0.00,,,0.00,Wunderground v.1.15,2013-01-27 18:58:00,
2013-01-27 12:01:00,48.5,33.5,29.73,SE,133,4.0,4.0,56,0.00,,,0.00,Wunderground v.1.15,2013-01-27 19:01:00,
2013-01-27 12:02:00,48.5,33.5,29.73,ESE,122,4.0,4.0,56,0.00,,,0.00,Wunderground v.1.15,2013-01-27 19:02:00,
2013-01-27 12:03:00,48.4,33.4,29.73,SSE,158,3.0,4.0,56,0.00,,,0.00,Wunderground v.1.15,2013-01-27 19:03:00,
2013-01-27 12:04:00,48.3,33.3,29.73,SE,127,2.0,4.0,56,0.00,,,0.00,Wunderground v.1.15,2013-01-27 19:04:00,
2013-01-27 12:06:00,48.2,33.7,29.73,SSW,210,4.0,6.0,57,0.00,,,0.00,Wunderground v.1.15,2013-01-27 19:06:00,
2013-01-27 12:07:00,48.2,33.7,29.73,SW,219,4.0,6.0,57,0.00,,,0.00,Wunderground v.1.15,2013-01-27 19:07:00,
2013-01-27 12:08:00,48.2,33.7,29.73,SW,221,4.0,6.0,57,0.00,,,0.00,Wunderground v.1.15,2013-01-27 19:08:00,
2013-01-27 12:09:00,48.1,33.6,29.73,SSW,207,6.0,6.0,57,0.00,,,0.00,Wunderground v.1.15,2013-01-27 19:09:00,
2013-01-27 12:12:00,47.9,33.4,29.72,SSW,207,5.0,5.0,57,0.00,,,0.00,Wunderground v.1.15,2013-01-27 19:12:00,
2013-01-27 12:13:00,48.0,33.9,29.72,WSW,249,4.0,6.0,58,0.00,,,0.00,Wunderground v.1.15,2013-01-27 19:13:00,
2013-01-27 12:14:00,48.0,33.9,29.72,WSW,250,1.0,6.0,58,0.00,,,0.00,Wunderground v.1.15,2013-01-27 19:14:00,
2013-01-27 12:17:00,48.3,34.2,29.72,NNE,22,0.0,6.0,58,0.00,,,0.00,Wunderground v.1.15,2013-01-27 19:17:00,
2013-01-27 12:18:00,48.5,34.4,29.71,West,281,2.0,6.0,58,0.00,,,0.00,Wunderground v.1.15,2013-01-27 19:18:00,
2013-01-27 12:19:00,48.7,34.6,29.71,West,266,0.0,6.0,58,0.00,,,0.00,Wunderground v.1.15,2013-01-27 19:19:00,
2013-01-27 12:22:00,49.2,34.6,29.71,West,263,4.0,5.0,57,0.00,,,0.00,Wunderground v.1.15,2013-01-27 19:22:00,
2013-01-27 12:23:00,49.4,34.8,29.72,SSW,195,1.0,9.0,57,0.00,,,0.00,Wunderground v.1.15,2013-01-27 19:23:00,
2013-01-27 12:24:00,49.5,34.9,29.72,East,86,0.0,9.0,57,0.00,,,0.00,Wunderground v.1.15,2013-01-27 19:24:00,
2013-01-27 12:27:00,49.7,35.1,29.71,South,170,2.0,9.0,57,0.00,,,0.00,Wunderground v.1.15,2013-01-27 19:27:00,
2013-01-27 12:28:00,49.8,35.2,29.71,SSE,151,2.0,9.0,57,0.00,,,0.00,Wunderground v.1.15,2013-01-27 19:28:00,
2013-01-27 12:30:00,49.9,35.3,29.71,SSE,158,2.0,9.0,57,0.00,,,0.00,Wunderground v.1.15,2013-01-27 19:30:00,
2013-01-27 12:32:00,49.9,35.3,29.71,SSE,165,3.0,4.0,57,0.00,,,0.00,Wunderground v.1.15,2013-01-27 19:32:00,
2013-01-27 12:34:00,50.0,35.4,29.71,West,262,4.0,7.0,57,0.00,,,0.00,Wunderground v.1.15,2013-01-27 19:34:00,
2013-01-27 12:35:00,50.0,34.9,29.71,WSW,251,2.0,7.0,56,0.00,,,0.00,Wunderground v.1.15,2013-01-27 19:35:00,
2013-01-27 12:37:00,50.1,35.0,29.71,SW,231,2.0,7.0,56,0.00,,,0.00,Wunderground v.1.15,2013-01-27 19:37:00,
2013-01-27 12:38:00,50.1,35.0,29.71,West,271,1.0,7.0,56,0.00,,,0.00,Wunderground v.1.15,2013-01-27 19:38:00,
2013-01-27 12:39:00,50.2,35.1,29.71,South,191,2.0,7.0,56,0.00,,,0.00,Wunderground v.1.15,2013-01-27 19:39:00,
2013-01-27 12:40:00,50.3,35.2,29.71,South,176,3.0,3.0,56,0.00,,,0.00,Wunderground v.1.15,2013-01-27 19:40:00,
2013-01-27 12:42:00,50.4,35.3,29.71,SW,218,3.0,7.0,56,0.00,,,0.00,Wunderground v.1.15,2013-01-27 19:42:00,
2013-01-27 12:43:00,50.4,35.3,29.71,SW,228,5.0,7.0,56,0.00,,,0.00,Wunderground v.1.15,2013-01-27 19:43:00,
2013-01-27 12:44:00,50.5,35.4,29.71,WSW,256,4.0,7.0,56,0.00,,,0.00,Wunderground v.1.15,2013-01-27 19:44:00,
2013-01-27 12:45:00,50.5,35.4,29.71,SW,217,6.0,8.0,56,0.00,,,0.00,Wunderground v.1.15,2013-01-27 19:45:00,
2013-01-27 12:47:00,51.0,35.8,29.70,South,188,6.0,8.0,56,0.00,,,0.00,Wunderground v.1.15,2013-01-27 19:47:00,
2013-01-27 12:48:00,51.1,35.9,29.70,SW,222,6.0,8.0,56,0.00,,,0.00,Wunderground v.1.15,2013-01-27 19:48:00,
2013-01-27 12:49:00,51.4,35.8,29.70,SSW,201,5.0,10.0,55,0.00,,,0.00,Wunderground v.1.15,2013-01-27 19:49:00,
2013-01-27 12:50:00,51.5,35.9,29.70,SSW,200,9.0,9.0,55,0.00,,,0.00,Wunderground v.1.15,2013-01-27 19:50:00,
2013-01-27 12:52:00,51.8,35.7,29.70,SSE,168,5.0,9.0,54,0.00,,,0.00,Wunderground v.1.15,2013-01-27 19:52:00,
2013-01-27 12:53:00,51.9,35.8,29.70,SE,138,9.0,9.0,54,0.00,,,0.00,Wunderground v.1.15,2013-01-27 19:53:00,
2013-01-27 12:55:00,52.0,35.4,29.69,SSE,165,5.0,11.0,53,0.00,,,0.00,Wunderground v.1.15,2013-01-27 19:55:00,
2013-01-27 12:58:00,52.1,35.5,29.70,SSW,212,4.0,11.0,53,0.00,,,0.00,Wunderground v.1.15,2013-01-27 19:58:00,
2013-01-27 13:00:00,52.3,35.7,29.70,SW,219,5.0,7.0,53,0.00,,,0.00,Wunderground v.1.15,2013-01-27 20:00:00,
2013-01-27 13:03:00,52.7,35.6,29.69,SSW,194,6.0,10.0,52,0.00,,,0.00,Wunderground v.1.15,2013-01-27 20:03:00,
2013-01-27 13:05:00,53.0,35.3,29.69,South,170,6.0,10.0,51,0.00,,,0.00,Wunderground v.1.15,2013-01-27 20:05:00,
2013-01-27 13:08:00,53.3,35.1,29.69,SE,140,4.0,10.0,50,0.00,,,0.00,Wunderground v.1.15,2013-01-27 20:08:00,
2013-01-27 13:09:00,53.4,35.7,29.69,SSE,163,4.0,10.0,51,0.00,,,0.00,Wunderground v.1.15,2013-01-27 20:09:00,
2013-01-27 13:10:00,53.5,35.8,29.69,South,184,2.0,6.0,51,0.00,,,0.00,Wunderground v.1.15,2013-01-27 20:10:00,
2013-01-27 13:13:00,53.9,35.7,29.69,South,186,5.0,7.0,50,0.00,,,0.00,Wunderground v.1.15,2013-01-27 20:13:00,
2013-01-27 13:14:00,54.0,35.8,29.69,SSE,168,8.0,9.0,50,0.00,,,0.00,Wunderground v.1.15,2013-01-27 20:14:00,
2013-01-27 13:15:00,54.2,35.4,29.69,SSE,150,4.0,9.0,49,0.00,,,0.00,Wunderground v.1.15,2013-01-27 20:15:00,
2013-01-27 13:18:00,54.2,34.4,29.69,SSW,194,4.0,9.0,47,0.00,,,0.00,Wunderground v.1.15,2013-01-27 20:18:00,
2013-01-27 13:19:00,54.2,34.9,29.69,SSW,195,5.0,9.0,48,0.00,,,0.00,Wunderground v.1.15,2013-01-27 20:19:00,
2013-01-27 13:20:00,54.3,35.0,29.69,SW,218,5.0,6.0,48,0.00,,,0.00,Wunderground v.1.15,2013-01-27 20:20:00,
2013-01-27 13:21:00,54.3,35.0,29.69,SSW,204,3.0,6.0,48,0.00,,,0.00,Wunderground v.1.15,2013-01-27 20:21:00,
2013-01-27 13:23:00,54.7,34.8,29.68,SSW,213,4.0,11.0,47,0.00,,,0.00,Wunderground v.1.15,2013-01-27 20:23:00,
2013-01-27 13:24:00,54.7,35.4,29.69,SSE,162,5.0,11.0,48,0.00,,,0.00,Wunderground v.1.15,2013-01-27 20:24:00,
2013-01-27 13:25:00,54.8,34.9,29.69,ESE,122,2.0,11.0,47,0.00,,,0.00,Wunderground v.1.15,2013-01-27 20:25:00,
2013-01-27 13:26:00,54.9,35.0,29.68,South,170,3.0,11.0,47,0.00,,,0.00,Wunderground v.1.15,2013-01-27 20:26:00,
2013-01-27 13:28:00,55.3,34.9,29.68,SSE,155,4.0,11.0,46,0.00,,,0.00,Wunderground v.1.15,2013-01-27 20:28:00,
2013-01-27 13:29:00,55.4,34.9,29.68,SW,228,4.0,11.0,46,0.00,,,0.00,Wunderground v.1.15,2013-01-27 20:29:00,
2013-01-27 13:30:00,55.4,34.9,29.68,SSW,195,5.0,8.0,46,0.00,,,0.00,Wunderground v.1.15,2013-01-27 20:30:00,
2013-01-27 13:31:00,55.5,34.5,29.68,South,176,7.0,8.0,45,0.00,,,0.00,Wunderground v.1.15,2013-01-27 20:31:00,
2013-01-27 13:34:00,55.7,34.7,29.68,SW,219,6.0,8.0,45,0.00,,,0.00,Wunderground v.1.15,2013-01-27 20:34:00,
2013-01-27 13:35:00,55.7,35.2,29.68,SW,214,7.0,8.0,46,0.00,,,0.00,Wunderground v.1.15,2013-01-27 20:35:00,
2013-01-27 13:36:00,55.7,35.2,29.68,SSW,210,4.0,8.0,46,0.00,,,0.00,Wunderground v.1.15,2013-01-27 20:36:00,
2013-01-27 13:39:00,55.6,35.7,29.68,South,174,3.0,8.0,47,0.00,,,0.00,Wunderground v.1.15,2013-01-27 20:39:00,
2013-01-27 13:41:00,55.7,35.8,29.68,WSW,243,7.0,7.0,47,0.00,,,0.00,Wunderground v.1.15,2013-01-27 20:41:00,
2013-01-27 13:44:00,55.8,34.8,29.68,SW,231,6.0,9.0,45,0.00,,,0.00,Wunderground v.1.15,2013-01-27 20:44:00,
2013-01-27 13:46:00,55.7,34.1,29.68,SSW,200,5.0,9.0,44,0.00,,,0.00,Wunderground v.1.15,2013-01-27 20:46:00,
2013-01-27 13:47:00,55.7,34.1,29.68,SW,217,3.0,9.0,44,0.00,,,0.00,Wunderground v.1.15,2013-01-27 20:47:00,
2013-01-27 13:49:00,55.7,34.1,29.68,South,181,5.0,10.0,44,0.00,,,0.00,Wunderground v.1.15,2013-01-27 20:49:00,
2013-01-27 13:50:00,55.8,34.2,29.67,SW,226,5.0,5.0,44,0.00,,,0.00,Wunderground v.1.15,2013-01-27 20:50:00,
2013-01-27 13:51:00,55.9,33.7,29.68,SSW,207,2.0,5.0,43,0.00,,,0.00,Wunderground v.1.15,2013-01-27 20:51:00,
2013-01-27 13:52:00,55.9,33.1,29.68,SSW,197,2.0,5.0,42,0.00,,,0.00,Wunderground v.1.15,2013-01-27 20:52:00,
2013-01-27 13:54:00,56.1,32.1,29.67,South,191,0.0,5.0,40,0.00,,,0.00,Wunderground v.1.15,2013-01-27 20:54:00,
2013-01-27 13:55:00,56.3,32.3,29.68,SW,229,1.0,5.0,40,0.00,,,0.00,Wunderground v.1.15,2013-01-27 20:55:00,
2013-01-27 13:56:00,56.5,33.1,29.67,SSW,207,4.0,5.0,41,0.00,,,0.00,Wunderground v.1.15,2013-01-27 20:56:00,
2013-01-27 13:57:00,56.7,32.6,29.67,SSW,200,0.0,5.0,40,0.00,,,0.00,Wunderground v.1.15,2013-01-27 20:57:00,
2013-01-27 13:59:00,57.0,32.9,29.67,South,169,7.0,7.0,40,0.00,,,0.00,Wunderground v.1.15,2013-01-27 20:59:00,
2013-01-27 14:00:00,57.1,33.0,29.67,SSW,207,5.0,7.0,40,0.00,,,0.00,Wunderground v.1.15,2013-01-27 21:00:00,
2013-01-27 14:01:00,57.1,32.4,29.67,SE,144,2.0,7.0,39,0.00,,,0.00,Wunderground v.1.15,2013-01-27 21:01:00,
2013-01-27 14:02:00,57.2,31.8,29.67,SE,141,4.0,7.0,38,0.00,,,0.00,Wunderground v.1.15,2013-01-27 21:02:00,
2013-01-27 14:04:00,57.2,32.4,29.67,SSW,202,5.0,7.0,39,0.00,,,0.00,Wunderground v.1.15,2013-01-27 21:04:00,
2013-01-27 14:05:00,57.2,32.4,29.67,SE,142,5.0,7.0,39,0.00,,,0.00,Wunderground v.1.15,2013-01-27 21:05:00,
2013-01-27 14:06:00,57.2,33.1,29.67,SSW,210,4.0,11.0,40,0.00,,,0.00,Wunderground v.1.15,2013-01-27 21:06:00,
2013-01-27 14:07:00,57.2,33.1,29.67,SSW,210,6.0,11.0,40,0.00,,,0.00,Wunderground v.1.15,2013-01-27 21:07:00,
2013-01-27 14:09:00,57.2,33.1,29.67,SSE,157,3.0,11.0,40,0.00,,,0.00,Wunderground v.1.15,2013-01-27 21:09:00,
2013-01-27 14:10:00,57.2,32.4,29.67,East,94,4.0,5.0,39,0.00,,,0.00,Wunderground v.1.15,2013-01-27 21:10:00,
2013-01-27 14:11:00,57.2,32.4,29.67,SE,143,4.0,7.0,39,0.00,,,0.00,Wunderground v.1.15,2013-01-27 21:11:00,
2013-01-27 14:12:00,57.1,32.4,29.67,ESE,122,4.0,7.0,39,0.00,,,0.00,Wunderground v.1.15,2013-01-27 21:12:00,
2013-01-27 14:14:00,57.1,33.0,29.67,ESE,109,2.0,7.0,40,0.00,,,0.00,Wunderground v.1.15,2013-01-27 21:14:00,
2013-01-27 14:16:00,57.0,32.3,29.67,SE,124,5.0,7.0,39,0.00,,,0.00,Wunderground v.1.15,2013-01-27 21:16:00,
2013-01-27 14:17:00,56.9,32.8,29.67,ENE,74,6.0,7.0,40,0.00,,,0.00,Wunderground v.1.15,2013-01-27 21:17:00,
2013-01-27 14:19:00,56.9,32.8,29.67,ESE,120,3.0,8.0,40,0.00,,,0.00,Wunderground v.1.15,2013-01-27 21:19:00,
2013-01-27 14:21:00,56.9,32.2,29.67,SSE,163,5.0,10.0,39,0.00,,,0.00,Wunderground v.1.15,2013-01-27 21:21:00,
2013-01-27 14:22:00,57.0,32.3,29.67,ESE,122,4.0,10.0,39,0.00,,,0.00,Wunderground v.1.15,2013-01-27 21:22:00,
2013-01-27 14:24:00,57.0,32.3,29.67,SSW,197,7.0,10.0,39,0.00,,,0.00,Wunderground v.1.15,2013-01-27 21:24:00,
2013-01-27 14:26:00,56.8,32.7,29.67,SSE,166,4.0,10.0,40,0.00,,,0.00,Wunderground v.1.15,2013-01-27 21:26:00,
2013-01-27 14:27:00,56.8,32.7,29.67,SSE,148,1.0,10.0,40,0.00,,,0.00,Wunderground v.1.15,2013-01-27 21:27:00,
2013-01-27 14:29:00,57.0,31.6,29.67,South,188,2.0,10.0,38,0.00,,,0.00,Wunderground v.1.15,2013-01-27 21:29:00,
2013-01-27 14:31:00,57.2,33.1,29.67,South,172,3.0,8.0,40,0.00,,,0.00,Wunderground v.1.15,2013-01-27 21:31:00,
2013-01-27 14:32:00,57.3,33.2,29.67,South,184,7.0,8.0,40,0.00,,,0.00,Wunderground v.1.15,2013-01-27 21:32:00,
2013-01-27 14:34:00,57.5,32.7,29.67,SSW,212,6.0,8.0,39,0.00,,,0.00,Wunderground v.1.15,2013-01-27 21:34:00,
2013-01-27 14:36:00,57.5,31.4,29.67,SE,133,3.0,8.0,37,0.00,,,0.00,Wunderground v.1.15,2013-01-27 21:36:00,
2013-01-27 14:37:00,57.5,32.1,29.67,ESE,120,6.0,8.0,38,0.00,,,0.00,Wunderground v.1.15,2013-01-27 21:37:00,
2013-01-27 14:39:00,57.3,31.2,29.67,ESE,122,4.0,8.0,37,0.00,,,0.00,Wunderground v.1.15,2013-01-27 21:39:00,
2013-01-27 14:41:00,57.3,31.2,29.67,SE,129,6.0,7.0,37,0.00,,,0.00,Wunderground v.1.15,2013-01-27 21:41:00,
2013-01-27 14:42:00,57.2,30.5,29.67,SE,138,3.0,7.0,36,0.00,,,0.00,Wunderground v.1.15,2013-01-27 21:42:00,
2013-01-27 14:44:00,57.2,31.1,29.68,SW,219,3.0,7.0,37,0.00,,,0.00,Wunderground v.1.15,2013-01-27 21:44:00,
2013-01-27 14:46:00,57.4,31.3,29.67,WSW,240,2.0,7.0,37,0.00,,,0.00,Wunderground v.1.15,2013-01-27 21:46:00,
2013-01-27 14:47:00,57.5,31.4,29.67,SW,236,0.0,7.0,37,0.00,,,0.00,Wunderground v.1.15,2013-01-27 21:47:00,
2013-01-27 14:48:00,57.6,31.5,29.67,SW,236,0.0,7.0,37,0.00,,,0.00,Wunderground v.1.15,2013-01-27 21:48:00,
2013-01-27 14:49:00,57.8,31.7,29.67,NNW,338,0.0,7.0,37,0.00,,,0.00,Wunderground v.1.15,2013-01-27 21:49:00,
2013-01-27 14:52:00,57.8,30.3,29.67,SSW,204,5.0,5.0,35,0.00,,,0.00,Wunderground v.1.15,2013-01-27 21:52:00,
2013-01-27 14:53:00,57.8,28.1,29.67,SSE,165,5.0,6.0,32,0.00,,,0.00,Wunderground v.1.15,2013-01-27 21:53:00,
2013-01-27 14:54:00,57.8,28.9,29.67,SSW,204,4.0,6.0,33,0.00,,,0.00,Wunderground v.1.15,2013-01-27 21:54:00,
2013-01-27 14:57:00,58.0,29.8,29.67,SSE,158,2.0,6.0,34,0.00,,,0.00,Wunderground v.1.15,2013-01-27 21:57:00,
2013-01-27 14:58:00,58.1,31.9,29.67,SSE,150,2.0,6.0,37,0.00,,,0.00,Wunderground v.1.15,2013-01-27 21:58:00,
2013-01-27 15:00:00,58.0,31.2,29.67,SSE,148,5.0,5.0,36,0.00,,,0.00,Wunderground v.1.15,2013-01-27 22:00:00,
2013-01-27 15:02:00,57.9,31.1,29.67,SSE,148,9.0,9.0,36,0.00,,,0.00,Wunderground v.1.15,2013-01-27 22:02:00,
2013-01-27 15:03:00,57.8,30.3,29.67,South,169,3.0,9.0,35,0.00,,,0.00,Wunderground v.1.15,2013-01-27 22:03:00,
2013-01-27 15:05:00,57.8,31.0,29.67,SW,221,3.0,9.0,36,0.00,,,0.00,Wunderground v.1.15,2013-01-27 22:05:00,
2013-01-27 15:07:00,58.0,31.2,29.67,NNE,15,2.0,9.0,36,0.00,,,0.00,Wunderground v.1.15,2013-01-27 22:07:00,
2013-01-27 15:08:00,58.0,29.8,29.67,East,79,3.0,9.0,34,0.00,,,0.00,Wunderground v.1.15,2013-01-27 22:08:00,
2013-01-27 15:10:00,57.9,28.2,29.67,SE,130,4.0,4.0,32,0.00,,,0.00,Wunderground v.1.15,2013-01-27 22:10:00,
2013-01-27 15:12:00,57.9,26.6,29.67,SSE,153,2.0,4.0,30,0.00,,,0.00,Wunderground v.1.15,2013-01-27 22:12:00,
2013-01-27 15:13:00,58.1,29.1,29.67,SSW,197,5.0,5.0,33,0.00,,,0.00,Wunderground v.1.15,2013-01-27 22:13:00,
2013-01-27 15:15:00,58.2,29.2,29.67,SSW,194,4.0,5.0,33,0.00,,,0.00,Wunderground v.1.15,2013-01-27 22:15:00,
2013-01-27 15:17:00,58.4,29.4,29.67,SSW,204,3.0,5.0,33,0.00,,,0.00,Wunderground v.1.15,2013-01-27 22:17:00,
2013-01-27 15:19:00,58.6,28.8,29.67,SE,140,1.0,5.0,32,0.00,,,0.00,Wunderground v.1.15,2013-01-27 22:19:00,
2013-01-27 15:20:00,58.6,28.8,29.67,SE,139,2.0,3.0,32,0.00,,,0.00,Wunderground v.1.15,2013-01-27 22:20:00,
2013-01-27 15:22:00,58.6,28.8,29.68,South,191,4.0,5.0,32,0.00,,,0.00,Wunderground v.1.15,2013-01-27 22:22:00,
2013-01-27 15:24:00,58.6,28.0,29.68,SSW,192,4.0,6.0,31,0.00,,,0.00,Wunderground v.1.15,2013-01-27 22:24:00,
2013-01-27 15:25:00,58.6,28.8,29.68,SSW,204,3.0,6.0,32,0.00,,,0.00,Wunderground v.1.15,2013-01-27 22:25:00,
2013-01-27 15:27:00,58.7,28.1,29.67,South,185,3.0,6.0,31,0.00,,,0.00,Wunderground v.1.15,2013-01-27 22:27:00,
2013-01-27 15:29:00,58.8,27.4,29.67,South,187,4.0,8.0,30,0.00,,,0.00,Wunderground v.1.15,2013-01-27 22:29:00,
2013-01-27 15:30:00,58.9,27.5,29.67,South,175,4.0,4.0,30,0.00,,,0.00,Wunderground v.1.15,2013-01-27 22:30:00,
2013-01-27 15:32:00,59.0,27.6,29.67,East,86,2.0,4.0,30,0.00,,,0.00,Wunderground v.1.15,2013-01-27 22:32:00,
2013-01-27 15:34:00,58.9,25.8,29.67,SE,129,1.0,4.0,28,0.00,,,0.00,Wunderground v.1.15,2013-01-27 22:34:00,
2013-01-27 15:35:00,58.9,26.7,29.67,WSW,252,5.0,5.0,29,0.00,,,0.00,Wunderground v.1.15,2013-01-27 22:35:00,
2013-01-27 15:37:00,58.8,22.0,29.67,SW,219,7.0,11.0,24,0.00,,,0.00,Wunderground v.1.15,2013-01-27 22:37:00,
2013-01-27 15:38:00,58.8,23.0,29.67,SSW,198,4.0,11.0,25,0.00,,,0.00,Wunderground v.1.15,2013-01-27 22:38:00,
2013-01-27 15:39:00,58.6,22.8,29.67,SW,215,8.0,11.0,25,0.00,,,0.00,Wunderground v.1.15,2013-01-27 22:39:00,
2013-01-27 15:40:00,58.4,21.7,29.67,SW,225,6.0,10.0,24,0.00,,,0.00,Wunderground v.1.15,2013-01-27 22:40:00,
2013-01-27 15:42:00,58.0,21.4,29.68,SW,228,9.0,13.0,24,0.00,,,0.00,Wunderground v.1.15,2013-01-27 22:42:00,
2013-01-27 15:43:00,57.9,21.3,29.68,SSW,208,9.0,13.0,24,0.00,,,0.00,Wunderground v.1.15,2013-01-27 22:43:00,
2013-01-27 15:44:00,57.8,22.2,29.68,SSW,203,6.0,13.0,25,0.00,,,0.00,Wunderground v.1.15,2013-01-27 22:44:00,
2013-01-27 15:45:00,57.7,21.1,29.68,SSW,207,11.0,15.0,24,0.00,,,0.00,Wunderground v.1.15,2013-01-27 22:45:00,
2013-01-27 15:48:00,57.4,21.8,29.68,SW,222,8.0,15.0,25,0.00,,,0.00,Wunderground v.1.15,2013-01-27 22:48:00,
2013-01-27 15:49:00,57.3,21.7,29.68,SW,228,10.0,15.0,25,0.00,,,0.00,Wunderground v.1.15,2013-01-27 22:49:00,
2013-01-27 15:51:00,57.2,21.6,29.68,SW,228,8.0,9.0,25,0.00,,,0.00,Wunderground v.1.15,2013-01-27 22:51:00,
2013-01-27 15:53:00,57.1,21.6,29.68,SW,217,9.0,12.0,25,0.00,,,0.00,Wunderground v.1.15,2013-01-27 22:53:00,
2013-01-27 15:54:00,57.1,21.6,29.68,SW,225,9.0,12.0,25,0.00,,,0.00,Wunderground v.1.15,2013-01-27 22:54:00,
2013-01-27 15:56:00,57.0,21.5,29.68,SW,233,6.0,12.0,25,0.00,,,0.00,Wunderground v.1.15,2013-01-27 22:56:00,
2013-01-27 15:58:00,56.9,22.3,29.68,SW,233,9.0,12.0,26,0.00,,,0.00,Wunderground v.1.15,2013-01-27 22:58:00,
2013-01-27 15:59:00,56.9,22.3,29.68,SW,217,6.0,12.0,26,0.00,,,0.00,Wunderground v.1.15,2013-01-27 22:59:00,
2013-01-27 16:01:00,56.8,22.2,29.68,SW,229,9.0,11.0,26,0.00,,,0.00,Wunderground v.1.15,2013-01-27 23:01:00,
2013-01-27 16:03:00,56.9,21.4,29.68,WSW,243,7.0,11.0,25,0.00,,,0.00,Wunderground v.1.15,2013-01-27 23:03:00,
2013-01-27 16:04:00,57.0,21.5,29.68,SW,219,4.0,11.0,25,0.00,,,0.00,Wunderground v.1.15,2013-01-27 23:04:00,
2013-01-27 16:07:00,57.0,22.4,29.68,SW,224,8.0,11.0,26,0.00,,,0.00,Wunderground v.1.15,2013-01-27 23:07:00,
2013-01-27 16:08:00,57.0,21.5,29.68,SW,217,8.0,11.0,25,0.00,,,0.00,Wunderground v.1.15,2013-01-27 23:08:00,
2013-01-27 16:09:00,57.0,21.5,29.68,SSW,198,6.0,11.0,25,0.00,,,0.00,Wunderground v.1.15,2013-01-27 23:09:00,
2013-01-27 16:10:00,57.0,21.5,29.68,SSW,205,5.0,11.0,25,0.00,,,0.00,Wunderground v.1.15,2013-01-27 23:10:00,
2013-01-27 16:12:00,56.9,21.4,29.68,SW,225,9.0,10.0,25,0.00,,,0.00,Wunderground v.1.15,2013-01-27 23:12:00,
2013-01-27 16:13:00,56.9,21.4,29.68,SW,219,4.0,10.0,25,0.00,,,0.00,Wunderground v.1.15,2013-01-27 23:13:00,
2013-01-27 16:14:00,56.9,21.4,29.68,West,264,3.0,10.0,25,0.00,,,0.00,Wunderground v.1.15,2013-01-27 23:14:00,
2013-01-27 16:15:00,56.9,21.4,29.68,SW,235,8.0,10.0,25,0.00,,,0.00,Wunderground v.1.15,2013-01-27 23:15:00,
2013-01-27 16:17:00,56.9,21.4,29.68,SW,217,5.0,10.0,25,0.00,,,0.00,Wunderground v.1.15,2013-01-27 23:17:00,
2013-01-27 16:18:00,56.9,21.4,29.68,SW,218,7.0,10.0,25,0.00,,,0.00,Wunderground v.1.15,2013-01-27 23:18:00,
2013-01-27 16:19:00,56.9,21.4,29.68,South,176,3.0,10.0,25,0.00,,,0.00,Wunderground v.1.15,2013-01-27 23:19:00,
2013-01-27 16:21:00,56.9,21.4,29.68,SSW,210,4.0,7.0,25,0.00,,,0.00,Wunderground v.1.15,2013-01-27 23:21:00,
2013-01-27 16:22:00,56.9,21.4,29.68,WSW,240,3.0,11.0,25,0.00,,,0.00,Wunderground v.1.15,2013-01-27 23:22:00,
2013-01-27 16:23:00,56.8,21.3,29.68,SW,214,3.0,11.0,25,0.00,,,0.00,Wunderground v.1.15,2013-01-27 23:23:00,
2013-01-27 16:24:00,56.7,21.2,29.68,SSW,201,3.0,11.0,25,0.00,,,0.00,Wunderground v.1.15,2013-01-27 23:24:00,
2013-01-27 16:26:00,56.5,21.1,29.68,WSW,240,3.0,11.0,25,0.00,,,0.00,Wunderground v.1.15,2013-01-27 23:26:00,
2013-01-27 16:27:00,56.4,21.0,29.68,SSW,201,5.0,11.0,25,0.00,,,0.00,Wunderground v.1.15,2013-01-27 23:27:00,
2013-01-27 16:28:00,56.2,20.8,29.68,South,185,4.0,15.0,25,0.00,,,0.00,Wunderground v.1.15,2013-01-27 23:28:00,
2013-01-27 16:29:00,56.1,20.7,29.68,SW,233,3.0,15.0,25,0.00,,,0.00,Wunderground v.1.15,2013-01-27 23:29:00,
2013-01-27 16:31:00,55.9,21.5,29.68,West,259,6.0,10.0,26,0.00,,,0.00,Wunderground v.1.15,2013-01-27 23:31:00,
2013-01-27 16:32:00,55.8,20.5,29.68,WSW,256,5.0,11.0,25,0.00,,,0.00,Wunderground v.1.15,2013-01-27 23:32:00,
2013-01-27 16:34:00,55.6,21.2,29.68,SW,217,6.0,11.0,26,0.00,,,0.00,Wunderground v.1.15,2013-01-27 23:34:00,
2013-01-27 16:36:00,55.4,21.0,29.68,SW,236,8.0,11.0,26,0.00,,,0.00,Wunderground v.1.15,2013-01-27 23:36:00,
2013-01-27 16:37:00,55.3,21.0,29.68,SW,233,4.0,11.0,26,0.00,,,0.00,Wunderground v.1.15,2013-01-27 23:37:00,
2013-01-27 16:39:00,55.3,21.0,29.68,SW,235,8.0,11.0,26,0.00,,,0.00,Wunderground v.1.15,2013-01-27 23:39:00,
2013-01-27 16:40:00,55.2,20.9,29.68,SW,225,4.0,6.0,26,0.00,,,0.00,Wunderground v.1.15,2013-01-27 23:40:00,
2013-01-27 16:41:00,55.1,20.8,29.68,SW,226,7.0,10.0,26,0.00,,,0.00,Wunderground v.1.15,2013-01-27 23:41:00,
2013-01-27 16:42:00,55.0,20.7,29.68,SW,221,8.0,10.0,26,0.00,,,0.00,Wunderground v.1.15,2013-01-27 23:42:00,
2013-01-27 16:44:00,54.9,21.5,29.68,SSW,205,3.0,10.0,27,0.00,,,0.00,Wunderground v.1.15,2013-01-27 23:44:00,
2013-01-27 16:45:00,54.8,21.4,29.68,SW,228,5.0,10.0,27,0.00,,,0.00,Wunderground v.1.15,2013-01-27 23:45:00,
2013-01-27 16:46:00,54.7,21.3,29.68,SSW,195,5.0,10.0,27,0.00,,,0.00,Wunderground v.1.15,2013-01-27 23:46:00,
2013-01-27 16:47:00,54.6,22.1,29.68,SW,231,9.0,10.0,28,0.00,,,0.00,Wunderground v.1.15,2013-01-27 23:47:00,
2013-01-27 16:49:00,54.3,22.7,29.68,SW,219,3.0,10.0,29,0.00,,,0.00,Wunderground v.1.15,2013-01-27 23:49:00,
2013-01-27 16:50:00,54.2,22.6,29.68,SSW,211,5.0,5.0,29,0.00,,,0.00,Wunderground v.1.15,2013-01-27 23:50:00,
2013-01-27 16:52:00,53.9,22.3,29.68,SW,228,4.0,7.0,29,0.00,,,0.00,Wunderground v.1.15,2013-01-27 23:52:00,
2013-01-27 16:54:00,53.5,22.8,29.68,SSW,195,3.0,7.0,30,0.00,,,0.00,Wunderground v.1.15,2013-01-27 23:54:00,
2013-01-27 16:55:00,53.4,23.5,29.68,SW,225,7.0,7.0,31,0.00,,,0.00,Wunderground v.1.15,2013-01-27 23:55:00,
2013-01-27 16:57:00,53.1,23.2,29.68,SSW,204,4.0,7.0,31,0.00,,,0.00,Wunderground v.1.15,2013-01-27 23:57:00,
2013-01-27 16:59:00,52.8,23.0,29.68,SSW,207,6.0,9.0,31,0.00,,,0.00,Wunderground v.1.15,2013-01-27 23:59:00,
2013-01-27 17:01:00,52.7,22.9,29.68,WSW,243,5.0,7.0,31,0.00,,,0.00,Wunderground v.1.15,2013-01-28 00:01:00,
2013-01-27 17:02:00,52.7,23.6,29.68,SSW,205,4.0,7.0,32,0.00,,,0.00,Wunderground v.1.15,2013-01-28 00:02:00,
2013-01-27 17:04:00,52.6,23.5,29.68,SW,219,6.0,8.0,32,0.00,,,0.00,Wunderground v.1.15,2013-01-28 00:04:00,
2013-01-27 17:06:00,52.5,23.5,29.68,SW,236,6.0,8.0,32,0.00,,,0.00,Wunderground v.1.15,2013-01-28 00:06:00,
2013-01-27 17:07:00,52.5,23.5,29.68,SW,224,6.0,9.0,32,0.00,,,0.00,Wunderground v.1.15,2013-01-28 00:07:00,
2013-01-27 17:08:00,52.5,24.2,29.68,SW,222,7.0,9.0,33,0.00,,,0.00,Wunderground v.1.15,2013-01-28 00:08:00,
2013-01-27 17:09:00,52.5,24.2,29.68,SSW,208,6.0,12.0,33,0.00,,,0.00,Wunderground v.1.15,2013-01-28 00:09:00,
2013-01-27 17:11:00,52.4,24.1,29.68,SSW,210,4.0,9.0,33,0.00,,,0.00,Wunderground v.1.15,2013-01-28 00:11:00,
2013-01-27 17:12:00,52.4,24.1,29.69,SSW,210,5.0,11.0,33,0.00,,,0.00,Wunderground v.1.15,2013-01-28 00:12:00,
2013-01-27 17:13:00,52.3,24.7,29.69,SSW,207,6.0,11.0,34,0.00,,,0.00,Wunderground v.1.15,2013-01-28 00:13:00,
2013-01-27 17:15:00,52.2,23.9,29.69,SSW,212,5.0,11.0,33,0.00,,,0.00,Wunderground v.1.15,2013-01-28 00:15:00,
2013-01-27 17:16:00,52.2,23.9,29.69,SSW,210,5.0,11.0,33,0.00,,,0.00,Wunderground v.1.15,2013-01-28 00:16:00,
2013-01-27 17:17:00,52.2,23.2,29.69,SW,217,8.0,11.0,32,0.00,,,0.00,Wunderground v.1.15,2013-01-28 00:17:00,
2013-01-27 17:18:00,52.2,23.2,29.69,SSW,193,7.0,11.0,32,0.00,,,0.00,Wunderground v.1.15,2013-01-28 00:18:00,
2013-01-27 17:20:00,52.3,23.3,29.69,SW,217,4.0,8.0,32,0.00,,,0.00,Wunderground v.1.15,2013-01-28 00:20:00,
2013-01-27 17:21:00,52.3,23.3,29.69,WSW,255,5.0,8.0,32,0.00,,,0.00,Wunderground v.1.15,2013-01-28 00:21:00,
2013-01-27 17:22:00,52.2,23.2,29.69,SW,221,4.0,8.0,32,0.00,,,0.00,Wunderground v.1.15,2013-01-28 00:22:00,
2013-01-27 17:23:00,52.2,23.2,29.69,SSW,208,5.0,8.0,32,0.00,,,0.00,Wunderground v.1.15,2013-01-28 00:23:00,
2013-01-27 17:25:00,51.9,23.7,29.68,SSW,211,6.0,8.0,33,0.00,,,0.00,Wunderground v.1.15,2013-01-28 00:25:00,
2013-01-27 17:26:00,51.8,24.3,29.69,SSW,207,5.0,8.0,34,0.00,,,0.00,Wunderground v.1.15,2013-01-28 00:26:00,
2013-01-27 17:28:00,51.7,24.2,29.68,SW,233,6.0,8.0,34,0.00,,,0.00,Wunderground v.1.15,2013-01-28 00:28:00,
2013-01-27 17:30:00,51.6,24.8,29.69,SW,224,4.0,6.0,35,0.00,,,0.00,Wunderground v.1.15,2013-01-28 00:30:00,
2013-01-27 17:31:00,51.6,24.8,29.69,WSW,243,5.0,7.0,35,0.00,,,0.00,Wunderground v.1.15,2013-01-28 00:31:00,
2013-01-27 17:33:00,51.5,26.1,29.69,SW,226,8.0,8.0,37,0.00,,,0.00,Wunderground v.1.15,2013-01-28 00:33:00,
2013-01-27 17:36:00,51.3,27.2,29.69,WSW,243,7.0,9.0,39,0.00,,,0.00,Wunderground v.1.15,2013-01-28 00:36:00,
2013-01-27 17:38:00,51.1,28.2,29.69,WSW,243,10.0,10.0,41,0.00,,,0.00,Wunderground v.1.15,2013-01-28 00:38:00,
2013-01-27 17:41:00,50.6,28.3,29.69,WSW,243,9.0,10.0,42,0.00,,,0.00,Wunderground v.1.15,2013-01-28 00:41:00,
2013-01-27 17:43:00,50.3,28.6,29.69,WSW,256,4.0,11.0,43,0.00,,,0.00,Wunderground v.1.15,2013-01-28 00:43:00,
2013-01-27 17:46:00,50.1,28.4,29.69,WSW,249,9.0,11.0,43,0.00,,,0.00,Wunderground v.1.15,2013-01-28 00:46:00,
2013-01-27 17:48:00,49.9,28.8,29.69,WSW,248,8.0,11.0,44,0.00,,,0.00,Wunderground v.1.15,2013-01-28 00:48:00,
2013-01-27 17:51:00,49.6,28.0,29.69,WSW,238,5.0,8.0,43,0.00,,,0.00,Wunderground v.1.15,2013-01-28 00:51:00,
2013-01-27 17:53:00,49.9,25.9,29.69,SSW,211,7.0,8.0,39,0.00,,,0.00,Wunderground v.1.15,2013-01-28 00:53:00,
2013-01-27 17:54:00,50.0,25.4,29.69,SSW,207,5.0,8.0,38,0.00,,,0.00,Wunderground v.1.15,2013-01-28 00:54:00,
2013-01-27 17:56:00,50.3,24.3,29.70,WSW,256,6.0,9.0,36,0.00,,,0.00,Wunderground v.1.15,2013-01-28 00:56:00,
2013-01-27 17:57:00,50.4,25.1,29.70,WSW,241,9.0,9.0,37,0.00,,,0.00,Wunderground v.1.15,2013-01-28 00:57:00,
2013-01-27 17:58:00,50.9,23.5,29.70,SSW,207,4.0,10.0,34,0.00,,,0.00,Wunderground v.1.15,2013-01-28 00:58:00,
2013-01-27 17:59:00,51.1,23.0,29.70,WSW,253,7.0,10.0,33,0.00,,,0.00,Wunderground v.1.15,2013-01-28 00:59:00,
2013-01-27 18:01:00,51.5,23.3,29.70,SW,217,5.0,10.0,33,0.00,,,0.00,Wunderground v.1.15,2013-01-28 01:01:00,
2013-01-27 18:02:00,51.6,23.4,29.70,SW,228,6.0,10.0,33,0.00,,,0.00,Wunderground v.1.15,2013-01-28 01:02:00,
2013-01-27 18:03:00,52.0,23.0,29.70,WSW,239,8.0,11.0,32,0.00,,,0.00,Wunderground v.1.15,2013-01-28 01:03:00,
2013-01-27 18:04:00,52.1,23.1,29.70,SW,221,8.0,11.0,32,0.00,,,0.00,Wunderground v.1.15,2013-01-28 01:04:00,
2013-01-27 18:06:00,52.2,23.2,29.70,SSW,193,5.0,11.0,32,0.00,,,0.00,Wunderground v.1.15,2013-01-28 01:06:00,
2013-01-27 18:07:00,52.1,24.6,29.70,SW,218,5.0,11.0,34,0.00,,,0.00,Wunderground v.1.15,2013-01-28 01:07:00,
2013-01-27 18:09:00,51.8,25.7,29.70,SW,223,7.0,12.0,36,0.00,,,0.00,Wunderground v.1.15,2013-01-28 01:09:00,
2013-01-27 18:11:00,51.4,27.9,29.70,SW,231,8.0,9.0,40,0.00,,,0.00,Wunderground v.1.15,2013-01-28 01:11:00,
2013-01-27 18:12:00,51.2,27.7,29.71,West,262,6.0,10.0,40,0.00,,,0.00,Wunderground v.1.15,2013-01-28 01:12:00,
2013-01-27 18:14:00,50.8,28.5,29.71,SW,231,7.0,10.0,42,0.00,,,0.00,Wunderground v.1.15,2013-01-28 01:14:00,
2013-01-27 18:16:00,50.3,29.7,29.71,SW,232,8.0,10.0,45,0.00,,,0.00,Wunderground v.1.15,2013-01-28 01:16:00,
2013-01-27 18:18:00,50.1,30.1,29.70,SW,236,8.0,10.0,46,0.00,,,0.00,Wunderground v.1.15,2013-01-28 01:18:00,
2013-01-27 18:19:00,49.8,29.8,29.70,WSW,243,10.0,10.0,46,0.00,,,0.00,Wunderground v.1.15,2013-01-28 01:19:00,
2013-01-27 18:21:00,49.5,30.1,29.70,WSW,240,7.0,8.0,47,0.00,,,0.00,Wunderground v.1.15,2013-01-28 01:21:00,
2013-01-27 18:23:00,49.3,29.9,29.71,SW,228,6.0,8.0,47,0.00,,,0.00,Wunderground v.1.15,2013-01-28 01:23:00,
2013-01-27 18:24:00,49.1,29.7,29.71,SW,224,6.0,8.0,47,0.00,,,0.00,Wunderground v.1.15,2013-01-28 01:24:00,
2013-01-27 18:26:00,49.1,29.2,29.71,SW,228,6.0,8.0,46,0.00,,,0.00,Wunderground v.1.15,2013-01-28 01:26:00,
2013-01-27 18:28:00,49.0,29.1,29.71,SW,233,4.0,8.0,46,0.00,,,0.00,Wunderground v.1.15,2013-01-28 01:28:00,
2013-01-27 18:29:00,48.9,28.5,29.71,SW,228,4.0,8.0,45,0.00,,,0.00,Wunderground v.1.15,2013-01-28 01:29:00,
2013-01-27 18:30:00,48.9,28.5,29.71,WSW,238,5.0,6.0,45,0.00,,,0.00,Wunderground v.1.15,2013-01-28 01:30:00,
2013-01-27 18:31:00,48.8,28.4,29.71,SW,233,4.0,6.0,45,0.00,,,0.00,Wunderground v.1.15,2013-01-28 01:31:00,
2013-01-27 18:33:00,48.6,28.2,29.71,SW,233,6.0,6.0,45,0.00,,,0.00,Wunderground v.1.15,2013-01-28 01:33:00,
2013-01-27 18:34:00,48.6,28.2,29.71,WSW,238,5.0,6.0,45,0.00,,,0.00,Wunderground v.1.15,2013-01-28 01:34:00,
2013-01-27 18:35:00,48.5,28.6,29.71,SW,224,4.0,6.0,46,0.00,,,0.00,Wunderground v.1.15,2013-01-28 01:35:00,
2013-01-27 18:36:00,48.5,28.6,29.72,SW,228,4.0,7.0,46,0.00,,,0.00,Wunderground v.1.15,2013-01-28 01:36:00,
2013-01-27 18:38:00,48.4,29.1,29.72,SW,218,4.0,7.0,47,0.00,,,0.00,Wunderground v.1.15,2013-01-28 01:38:00,
2013-01-27 18:39:00,48.3,29.0,29.72,SW,226,5.0,7.0,47,0.00,,,0.00,Wunderground v.1.15,2013-01-28 01:39:00,
2013-01-27 18:40:00,48.2,29.4,29.72,SW,221,4.0,6.0,48,0.00,,,0.00,Wunderground v.1.15,2013-01-28 01:40:00,
2013-01-27 18:41:00,48.1,29.3,29.72,SW,231,5.0,7.0,48,0.00,,,0.00,Wunderground v.1.15,2013-01-28 01:41:00,
2013-01-27 18:43:00,48.1,29.3,29.72,SW,236,6.0,7.0,48,0.00,,,0.00,Wunderground v.1.15,2013-01-28 01:43:00,
2013-01-27 18:44:00,48.1,29.8,29.72,SSW,209,6.0,8.0,49,0.00,,,0.00,Wunderground v.1.15,2013-01-28 01:44:00,
2013-01-27 18:45:00,48.1,29.8,29.72,SW,219,7.0,8.0,49,0.00,,,0.00,Wunderground v.1.15,2013-01-28 01:45:00,
2013-01-27 18:46:00,48.0,29.7,29.72,SW,231,7.0,8.0,49,0.00,,,0.00,Wunderground v.1.15,2013-01-28 01:46:00,
2013-01-27 18:48:00,47.9,29.1,29.72,SW,217,5.0,8.0,48,0.00,,,0.00,Wunderground v.1.15,2013-01-28 01:48:00,
2013-01-27 18:50:00,47.7,28.9,29.72,SW,233,7.0,8.0,48,0.00,,,0.00,Wunderground v.1.15,2013-01-28 01:50:00,
2013-01-27 18:51:00,47.6,28.9,29.72,SW,231,6.0,8.0,48,0.00,,,0.00,Wunderground v.1.15,2013-01-28 01:51:00,
2013-01-27 18:53:00,47.7,28.4,29.72,WSW,245,8.0,10.0,47,0.00,,,0.00,Wunderground v.1.15,2013-01-28 01:53:00,
2013-01-27 18:55:00,47.7,28.4,29.72,WSW,239,3.0,10.0,47,0.00,,,0.00,Wunderground v.1.15,2013-01-28 01:55:00,
2013-01-27 18:57:00,47.6,27.8,29.72,WSW,255,5.0,10.0,46,0.00,,,0.00,Wunderground v.1.15,2013-01-28 01:57:00,
2013-01-27 18:58:00,47.3,27.5,29.72,WSW,256,5.0,10.0,46,0.00,,,0.00,Wunderground v.1.15,2013-01-28 01:58:00,
2013-01-27 19:00:00,46.8,27.6,29.72,West,264,3.0,6.0,47,0.00,,,0.00,Wunderground v.1.15,2013-01-28 02:00:00,
2013-01-27 19:01:00,46.5,27.3,29.72,WSW,246,3.0,6.0,47,0.00,,,0.00,Wunderground v.1.15,2013-01-28 02:01:00,
2013-01-27 19:02:00,46.3,27.2,29.72,West,266,3.0,6.0,47,0.00,,,0.00,Wunderground v.1.15,2013-01-28 02:02:00,
2013-01-27 19:03:00,45.9,26.8,29.72,West,263,5.0,6.0,47,0.00,,,0.00,Wunderground v.1.15,2013-01-28 02:03:00,
2013-01-27 19:05:00,45.5,26.9,29.72,West,266,4.0,6.0,48,0.00,,,0.00,Wunderground v.1.15,2013-01-28 02:05:00,
2013-01-27 19:06:00,45.3,26.7,29.72,West,263,4.0,6.0,48,0.00,,,0.00,Wunderground v.1.15,2013-01-28 02:06:00,
2013-01-27 19:07:00,45.0,27.0,29.72,WSW,252,4.0,8.0,49,0.00,,,0.00,Wunderground v.1.15,2013-01-28 02:07:00,
2013-01-27 19:09:00,44.7,26.7,29.72,West,259,5.0,8.0,49,0.00,,,0.00,Wunderground v.1.15,2013-01-28 02:09:00,
2013-01-27 19:10:00,44.3,26.3,29.72,West,259,3.0,5.0,49,0.00,,,0.00,Wunderground v.1.15,2013-01-28 02:10:00,
2013-01-27 19:11:00,44.3,25.8,29.72,WSW,256,4.0,5.0,48,0.00,,,0.00,Wunderground v.1.15,2013-01-28 02:11:00,
2013-01-27 19:12:00,44.5,26.0,29.72,WSW,255,4.0,6.0,48,0.00,,,0.00,Wunderground v.1.15,2013-01-28 02:12:00,
2013-01-27 19:14:00,44.8,25.8,29.72,West,263,4.0,6.0,47,0.00,,,0.00,Wunderground v.1.15,2013-01-28 02:14:00,
2013-01-27 19:15:00,45.1,25.5,29.72,WSW,243,5.0,6.0,46,0.00,,,0.00,Wunderground v.1.15,2013-01-28 02:15:00,
2013-01-27 19:16:00,45.2,25.6,29.72,WSW,250,4.0,6.0,46,0.00,,,0.00,Wunderground v.1.15,2013-01-28 02:16:00,
2013-01-27 19:18:00,45.3,25.2,29.72,West,259,4.0,6.0,45,0.00,,,0.00,Wunderground v.1.15,2013-01-28 02:18:00,
2013-01-27 19:19:00,45.4,25.3,29.72,West,271,3.0,6.0,45,0.00,,,0.00,Wunderground v.1.15,2013-01-28 02:19:00,
2013-01-27 19:20:00,45.7,25.0,29.72,West,262,5.0,5.0,44,0.00,,,0.00,Wunderground v.1.15,2013-01-28 02:20:00,
2013-01-27 19:21:00,45.8,25.1,29.72,WSW,243,5.0,5.0,44,0.00,,,0.00,Wunderground v.1.15,2013-01-28 02:21:00,
2013-01-27 19:23:00,45.9,24.6,29.72,West,259,4.0,5.0,43,0.00,,,0.00,Wunderground v.1.15,2013-01-28 02:23:00,
2013-01-27 19:24:00,45.9,24.6,29.72,West,259,4.0,5.0,43,0.00,,,0.00,Wunderground v.1.15,2013-01-28 02:24:00,
2013-01-27 19:26:00,45.9,24.6,29.72,WSW,257,4.0,5.0,43,0.00,,,0.00,Wunderground v.1.15,2013-01-28 02:26:00,
2013-01-27 19:28:00,45.7,24.5,29.72,WSW,249,6.0,6.0,43,0.00,,,0.00,Wunderground v.1.15,2013-01-28 02:28:00,
2013-01-27 19:29:00,45.6,24.4,29.72,WSW,246,5.0,6.0,43,0.00,,,0.00,Wunderground v.1.15,2013-01-28 02:29:00,
2013-01-27 19:31:00,45.5,24.3,29.72,WSW,240,4.0,6.0,43,0.00,,,0.00,Wunderground v.1.15,2013-01-28 02:31:00,
2013-01-27 19:32:00,45.5,24.3,29.72,WSW,240,4.0,6.0,43,0.00,,,0.00,Wunderground v.1.15,2013-01-28 02:32:00,
2013-01-27 19:33:00,45.6,24.4,29.72,SW,231,4.0,6.0,43,0.00,,,0.00,Wunderground v.1.15,2013-01-28 02:33:00,
2013-01-27 19:34:00,45.7,23.9,29.71,WSW,249,3.0,6.0,42,0.00,,,0.00,Wunderground v.1.15,2013-01-28 02:34:00,
2013-01-27 19:36:00,45.5,23.7,29.71,WSW,253,4.0,6.0,42,0.00,,,0.00,Wunderground v.1.15,2013-01-28 02:36:00,
2013-01-27 19:37:00,45.5,23.7,29.71,WSW,253,4.0,6.0,42,0.00,,,0.00,Wunderground v.1.15,2013-01-28 02:37:00,
2013-01-27 19:38:00,45.4,23.6,29.71,WSW,243,4.0,6.0,42,0.00,,,0.00,Wunderground v.1.15,2013-01-28 02:38:00,
2013-01-27 19:39:00,45.3,23.5,29.71,WSW,257,5.0,6.0,42,0.00,,,0.00,Wunderground v.1.15,2013-01-28 02:39:00,
2013-01-27 19:41:00,45.2,23.4,29.71,WSW,256,5.0,6.0,42,0.00,,,0.00,Wunderground v.1.15,2013-01-28 02:41:00,
2013-01-27 19:42:00,45.1,23.3,29.71,West,259,5.0,6.0,42,0.00,,,0.00,Wunderground v.1.15,2013-01-28 02:42:00,
2013-01-27 19:44:00,44.7,23.5,29.71,WSW,256,5.0,6.0,43,0.00,,,0.00,Wunderground v.1.15,2013-01-28 02:44:00,
2013-01-27 19:46:00,44.4,23.3,29.71,WSW,253,4.0,6.0,43,0.00,,,0.00,Wunderground v.1.15,2013-01-28 02:46:00,
2013-01-27 19:47:00,44.4,23.3,29.71,West,259,5.0,6.0,43,0.00,,,0.00,Wunderground v.1.15,2013-01-28 02:47:00,
2013-01-27 19:49:00,44.3,23.2,29.71,WSW,253,5.0,6.0,43,0.00,,,0.00,Wunderground v.1.15,2013-01-28 02:49:00,
2013-01-27 19:50:00,44.3,23.2,29.71,West,266,5.0,5.0,43,0.00,,,0.00,Wunderground v.1.15,2013-01-28 02:50:00,
2013-01-27 19:51:00,44.0,22.9,29.71,West,261,4.0,5.0,43,0.00,,,0.00,Wunderground v.1.15,2013-01-28 02:51:00,
2013-01-27 19:52:00,43.9,23.4,29.71,WSW,252,4.0,5.0,44,0.00,,,0.00,Wunderground v.1.15,2013-01-28 02:52:00,
2013-01-27 19:54:00,43.6,23.1,29.71,WSW,249,3.0,5.0,44,0.00,,,0.00,Wunderground v.1.15,2013-01-28 02:54:00,
2013-01-27 19:55:00,43.6,23.1,29.71,SW,218,2.0,5.0,44,0.00,,,0.00,Wunderground v.1.15,2013-01-28 02:55:00,
2013-01-27 19:56:00,43.5,23.0,29.71,WSW,253,4.0,5.0,44,0.00,,,0.00,Wunderground v.1.15,2013-01-28 02:56:00,
2013-01-27 19:57:00,43.5,23.0,29.71,WSW,250,4.0,5.0,44,0.00,,,0.00,Wunderground v.1.15,2013-01-28 02:57:00,
2013-01-27 19:59:00,43.8,22.7,29.71,WSW,243,4.0,5.0,43,0.00,,,0.00,Wunderground v.1.15,2013-01-28 02:59:00,
2013-01-27 20:00:00,43.9,22.8,29.71,WSW,253,3.0,4.0,43,0.00,,,0.00,Wunderground v.1.15,2013-01-28 03:00:00,
2013-01-27 20:01:00,44.1,23.0,29.71,WSW,253,4.0,4.0,43,0.00,,,0.00,Wunderground v.1.15,2013-01-28 03:01:00,
2013-01-27 20:02:00,44.3,23.2,29.71,West,262,4.0,5.0,43,0.00,,,0.00,Wunderground v.1.15,2013-01-28 03:02:00,
2013-01-27 20:04:00,44.4,22.7,29.71,WSW,246,4.0,5.0,42,0.00,,,0.00,Wunderground v.1.15,2013-01-28 03:04:00,
2013-01-27 20:05:00,44.4,22.7,29.71,WSW,243,4.0,5.0,42,0.00,,,0.00,Wunderground v.1.15,2013-01-28 03:05:00,
2013-01-27 20:07:00,44.4,22.7,29.71,South,172,5.0,5.0,42,0.00,,,0.00,Wunderground v.1.15,2013-01-28 03:07:00,
2013-01-27 20:09:00,43.7,22.6,29.71,WSW,238,4.0,6.0,43,0.00,,,0.00,Wunderground v.1.15,2013-01-28 03:09:00,
2013-01-27 20:10:00,43.5,22.5,29.72,SW,224,3.0,4.0,43,0.00,,,0.00,Wunderground v.1.15,2013-01-28 03:10:00,
2013-01-27 20:12:00,43.3,22.3,29.72,SSW,210,4.0,5.0,43,0.00,,,0.00,Wunderground v.1.15,2013-01-28 03:12:00,
2013-01-27 20:14:00,42.8,22.4,29.72,SW,221,3.0,5.0,44,0.00,,,0.00,Wunderground v.1.15,2013-01-28 03:14:00,
2013-01-27 20:15:00,42.7,22.3,29.72,WSW,250,3.0,5.0,44,0.00,,,0.00,Wunderground v.1.15,2013-01-28 03:15:00,
2013-01-27 20:17:00,42.7,22.3,29.72,WSW,241,3.0,5.0,44,0.00,,,0.00,Wunderground v.1.15,2013-01-28 03:17:00,
2013-01-27 20:19:00,43.1,22.6,29.72,West,260,2.0,5.0,44,0.00,,,0.00,Wunderground v.1.15,2013-01-28 03:19:00,
2013-01-27 20:20:00,43.5,22.5,29.72,WSW,248,3.0,3.0,43,0.00,,,0.00,Wunderground v.1.15,2013-01-28 03:20:00,
2013-01-27 20:22:00,43.9,22.3,29.72,WSW,253,4.0,4.0,42,0.00,,,0.00,Wunderground v.1.15,2013-01-28 03:22:00,
2013-01-27 20:24:00,44.1,22.4,29.72,WSW,257,5.0,5.0,42,0.00,,,0.00,Wunderground v.1.15,2013-01-28 03:24:00,
2013-01-27 20:25:00,44.2,22.0,29.72,WSW,246,4.0,5.0,41,0.00,,,0.00,Wunderground v.1.15,2013-01-28 03:25:00,
2013-01-27 20:27:00,44.2,22.0,29.72,WSW,248,4.0,5.0,41,0.00,,,0.00,Wunderground v.1.15,2013-01-28 03:27:00,
2013-01-27 20:29:00,44.1,21.9,29.72,WSW,250,4.0,5.0,41,0.00,,,0.00,Wunderground v.1.15,2013-01-28 03:29:00,
2013-01-27 20:30:00,44.1,21.9,29.72,WSW,256,6.0,6.0,41,0.00,,,0.00,Wunderground v.1.15,2013-01-28 03:30:00,
2013-01-27 20:32:00,44.0,21.8,29.72,WSW,253,5.0,6.0,41,0.00,,,0.00,Wunderground v.1.15,2013-01-28 03:32:00,
2013-01-27 20:33:00,44.0,21.8,29.72,WSW,243,4.0,6.0,41,0.00,,,0.00,Wunderground v.1.15,2013-01-28 03:33:00,
2013-01-27 20:34:00,43.9,21.7,29.72,WSW,253,6.0,6.0,41,0.00,,,0.00,Wunderground v.1.15,2013-01-28 03:34:00,
2013-01-27 20:35:00,43.6,21.4,29.72,WSW,257,5.0,6.0,41,0.00,,,0.00,Wunderground v.1.15,2013-01-28 03:35:00,
2013-01-27 20:37:00,43.4,21.8,29.72,WSW,250,4.0,6.0,42,0.00,,,0.00,Wunderground v.1.15,2013-01-28 03:37:00,
2013-01-27 20:38:00,43.4,21.8,29.72,West,259,4.0,6.0,42,0.00,,,0.00,Wunderground v.1.15,2013-01-28 03:38:00,
2013-01-27 20:40:00,43.3,21.7,29.72,West,259,4.0,5.0,42,0.00,,,0.00,Wunderground v.1.15,2013-01-28 03:40:00,
2013-01-27 20:41:00,43.2,21.6,29.72,West,262,4.0,5.0,42,0.00,,,0.00,Wunderground v.1.15,2013-01-28 03:41:00,
2013-01-27 20:42:00,43.0,21.4,29.72,WSW,248,4.0,5.0,42,0.00,,,0.00,Wunderground v.1.15,2013-01-28 03:42:00,
2013-01-27 20:43:00,43.0,21.4,29.72,WSW,256,4.0,5.0,42,0.00,,,0.00,Wunderground v.1.15,2013-01-28 03:43:00,
2013-01-27 20:45:00,43.0,21.4,29.72,West,260,4.0,5.0,42,0.00,,,0.00,Wunderground v.1.15,2013-01-28 03:45:00,
2013-01-27 20:46:00,43.0,21.4,29.72,SW,226,4.0,5.0,42,0.00,,,0.00,Wunderground v.1.15,2013-01-28 03:46:00,
2013-01-27 20:47:00,43.3,21.7,29.72,WSW,249,3.0,5.0,42,0.00,,,0.00,Wunderground v.1.15,2013-01-28 03:47:00,
2013-01-27 20:48:00,43.3,21.7,29.72,WSW,246,3.0,5.0,42,0.00,,,0.00,Wunderground v.1.15,2013-01-28 03:48:00,
2013-01-27 20:50:00,43.6,21.4,29.72,WSW,253,3.0,4.0,41,0.00,,,0.00,Wunderground v.1.15,2013-01-28 03:50:00,
2013-01-27 20:51:00,43.7,21.5,29.72,West,260,4.0,4.0,41,0.00,,,0.00,Wunderground v.1.15,2013-01-28 03:51:00,
2013-01-27 20:52:00,43.9,21.7,29.72,WSW,252,3.0,4.0,41,0.00,,,0.00,Wunderground v.1.15,2013-01-28 03:52:00,
2013-01-27 20:53:00,43.9,21.7,29.72,WSW,248,3.0,4.0,41,0.00,,,0.00,Wunderground v.1.15,2013-01-28 03:53:00,
2013-01-27 20:55:00,44.1,21.3,29.72,WSW,257,3.0,4.0,40,0.00,,,0.00,Wunderground v.1.15,2013-01-28 03:55:00,
2013-01-27 20:56:00,44.2,21.4,29.72,WSW,256,3.0,4.0,40,0.00,,,0.00,Wunderground v.1.15,2013-01-28 03:56:00,
2013-01-27 20:57:00,44.3,21.5,29.73,WSW,256,3.0,4.0,40,0.00,,,0.00,Wunderground v.1.15,2013-01-28 03:57:00,
2013-01-27 20:58:00,44.2,21.4,29.73,WSW,255,3.0,4.0,40,0.00,,,0.00,Wunderground v.1.15,2013-01-28 03:58:00,
2013-01-27 21:00:00,44.2,21.4,29.73,WSW,255,2.0,3.0,40,0.00,,,0.00,Wunderground v.1.15,2013-01-28 04:00:00,
2013-01-27 21:01:00,44.1,21.3,29.73,WSW,249,3.0,4.0,40,0.00,,,0.00,Wunderground v.1.15,2013-01-28 04:01:00,
2013-01-27 21:03:00,44.2,21.4,29.72,WSW,256,4.0,4.0,40,0.00,,,0.00,Wunderground v.1.15,2013-01-28 04:03:00,
2013-01-27 21:05:00,44.3,21.5,29.73,WSW,256,4.0,4.0,40,0.00,,,0.00,Wunderground v.1.15,2013-01-28 04:05:00,
2013-01-27 21:06:00,44.3,21.5,29.73,West,266,3.0,4.0,40,0.00,,,0.00,Wunderground v.1.15,2013-01-28 04:06:00,
2013-01-27 21:08:00,44.3,21.5,29.72,WSW,238,3.0,4.0,40,0.00,,,0.00,Wunderground v.1.15,2013-01-28 04:08:00,
2013-01-27 21:09:00,44.2,21.4,29.72,WSW,249,3.0,4.0,40,0.00,,,0.00,Wunderground v.1.15,2013-01-28 04:09:00,
2013-01-27 21:10:00,44.3,21.5,29.72,West,266,3.0,5.0,40,0.00,,,0.00,Wunderground v.1.15,2013-01-28 04:10:00,
2013-01-27 21:11:00,44.5,21.0,29.72,WSW,255,2.0,5.0,39,0.00,,,0.00,Wunderground v.1.15,2013-01-28 04:11:00,
2013-01-27 21:13:00,44.8,21.3,29.72,WSW,246,3.0,5.0,39,0.00,,,0.00,Wunderground v.1.15,2013-01-28 04:13:00,
2013-01-27 21:14:00,44.9,21.4,29.72,WSW,253,3.0,5.0,39,0.00,,,0.00,Wunderground v.1.15,2013-01-28 04:14:00,
2013-01-27 21:15:00,45.2,21.1,29.72,West,262,4.0,5.0,38,0.00,,,0.00,Wunderground v.1.15,2013-01-28 04:15:00,
2013-01-27 21:16:00,45.2,21.1,29.72,WSW,250,3.0,5.0,38,0.00,,,0.00,Wunderground v.1.15,2013-01-28 04:16:00,
2013-01-27 21:18:00,45.2,21.1,29.72,WSW,255,2.0,5.0,38,0.00,,,0.00,Wunderground v.1.15,2013-01-28 04:18:00,
2013-01-27 21:19:00,45.2,21.1,29.72,WSW,253,2.0,5.0,38,0.00,,,0.00,Wunderground v.1.15,2013-01-28 04:19:00,
2013-01-27 21:20:00,45.2,21.1,29.72,West,259,2.0,3.0,38,0.00,,,0.00,Wunderground v.1.15,2013-01-28 04:20:00,
2013-01-27 21:21:00,45.1,21.0,29.72,WSW,250,2.0,3.0,38,0.00,,,0.00,Wunderground v.1.15,2013-01-28 04:21:00,
2013-01-27 21:23:00,45.1,21.0,29.72,WSW,252,3.0,3.0,38,0.00,,,0.00,Wunderground v.1.15,2013-01-28 04:23:00,
2013-01-27 21:24:00,45.1,21.0,29.71,West,262,3.0,3.0,38,0.00,,,0.00,Wunderground v.1.15,2013-01-28 04:24:00,
2013-01-27 21:26:00,45.1,21.0,29.71,West,276,2.0,3.0,38,0.00,,,0.00,Wunderground v.1.15,2013-01-28 04:26:00,
2013-01-27 21:28:00,45.1,21.0,29.71,SW,231,2.0,3.0,38,0.00,,,0.00,Wunderground v.1.15,2013-01-28 04:28:00,
2013-01-27 21:29:00,45.2,21.1,29.71,West,266,3.0,4.0,38,0.00,,,0.00,Wunderground v.1.15,2013-01-28 04:29:00,
2013-01-27 21:32:00,44.9,20.8,29.71,WSW,256,3.0,4.0,38,0.00,,,0.00,Wunderground v.1.15,2013-01-28 04:32:00,
2013-01-27 21:33:00,44.8,20.7,29.71,WSW,248,3.0,4.0,38,0.00,,,0.00,Wunderground v.1.15,2013-01-28 04:33:00,
2013-01-27 21:34:00,44.8,21.3,29.71,WSW,250,3.0,4.0,39,0.00,,,0.00,Wunderground v.1.15,2013-01-28 04:34:00,
2013-01-27 21:37:00,44.8,20.7,29.71,WNW,286,5.0,5.0,38,0.00,,,0.00,Wunderground v.1.15,2013-01-28 04:37:00,
2013-01-27 21:38:00,44.7,20.6,29.71,WSW,241,3.0,5.0,38,0.00,,,0.00,Wunderground v.1.15,2013-01-28 04:38:00,
2013-01-27 21:39:00,44.6,21.1,29.71,SW,226,3.0,5.0,39,0.00,,,0.00,Wunderground v.1.15,2013-01-28 04:39:00,
2013-01-27 21:42:00,44.5,21.0,29.71,WSW,256,3.0,4.0,39,0.00,,,0.00,Wunderground v.1.15,2013-01-28 04:42:00,
2013-01-27 21:44:00,44.5,21.0,29.72,WSW,238,3.0,5.0,39,0.00,,,0.00,Wunderground v.1.15,2013-01-28 04:44:00,
2013-01-27 21:47:00,44.3,20.9,29.71,WNW,288,3.0,5.0,39,0.00,,,0.00,Wunderground v.1.15,2013-01-28 04:47:00,
2013-01-27 21:49:00,44.4,21.0,29.71,WNW,289,4.0,5.0,39,0.00,,,0.00,Wunderground v.1.15,2013-01-28 04:49:00,
2013-01-27 21:50:00,44.5,21.0,29.71,WSW,253,4.0,4.0,39,0.00,,,0.00,Wunderground v.1.15,2013-01-28 04:50:00,
2013-01-27 21:52:00,44.6,20.5,29.71,West,269,5.0,5.0,38,0.00,,,0.00,Wunderground v.1.15,2013-01-28 04:52:00,
2013-01-27 21:54:00,44.3,20.9,29.71,West,259,4.0,5.0,39,0.00,,,0.00,Wunderground v.1.15,2013-01-28 04:54:00,
2013-01-27 21:55:00,44.1,20.7,29.71,West,279,5.0,5.0,39,0.00,,,0.00,Wunderground v.1.15,2013-01-28 04:55:00,
2013-01-27 21:57:00,43.9,20.5,29.70,WNW,286,5.0,5.0,39,0.00,,,0.00,Wunderground v.1.15,2013-01-28 04:57:00,
2013-01-27 21:59:00,44.0,20.6,29.70,WSW,248,5.0,5.0,39,0.00,,,0.00,Wunderground v.1.15,2013-01-28 04:59:00,
2013-01-27 22:00:00,44.1,20.7,29.70,WSW,253,5.0,5.0,39,0.00,,,0.00,Wunderground v.1.15,2013-01-28 05:00:00,
2013-01-27 22:02:00,44.1,20.7,29.70,WSW,253,4.0,5.0,39,0.00,,,0.00,Wunderground v.1.15,2013-01-28 05:02:00,
2013-01-27 22:03:00,44.0,20.6,29.70,WSW,252,4.0,5.0,39,0.00,,,0.00,Wunderground v.1.15,2013-01-28 05:03:00,
2013-01-27 22:05:00,43.9,20.5,29.70,WSW,256,3.0,5.0,39,0.00,,,0.00,Wunderground v.1.15,2013-01-28 05:05:00,
2013-01-27 22:07:00,43.8,20.4,29.70,WSW,253,2.0,5.0,39,0.00,,,0.00,Wunderground v.1.15,2013-01-28 05:07:00,
2013-01-27 22:08:00,43.8,20.4,29.70,WSW,253,4.0,5.0,39,0.00,,,0.00,Wunderground v.1.15,2013-01-28 05:08:00,
2013-01-27 22:10:00,43.9,20.5,29.70,WSW,253,4.0,4.0,39,0.00,,,0.00,Wunderground v.1.15,2013-01-28 05:10:00,
2013-01-27 22:12:00,44.0,20.6,29.70,SW,228,5.0,5.0,39,0.00,,,0.00,Wunderground v.1.15,2013-01-28 05:12:00,
2013-01-27 22:13:00,44.3,20.9,29.70,SW,226,2.0,6.0,39,0.00,,,0.00,Wunderground v.1.15,2013-01-28 05:13:00,
2013-01-27 22:15:00,44.5,20.4,29.69,WSW,248,4.0,6.0,38,0.00,,,0.00,Wunderground v.1.15,2013-01-28 05:15:00,
2013-01-27 22:16:00,44.5,20.4,29.69,SW,236,3.0,6.0,38,0.00,,,0.00,Wunderground v.1.15,2013-01-28 05:16:00,
2013-01-27 22:17:00,44.3,20.3,29.70,WSW,246,2.0,6.0,38,0.00,,,0.00,Wunderground v.1.15,2013-01-28 05:17:00,
2013-01-27 22:18:00,44.3,20.3,29.70,West,262,3.0,6.0,38,0.00,,,0.00,Wunderground v.1.15,2013-01-28 05:18:00,
2013-01-27 22:20:00,44.2,20.2,29.69,SW,217,2.0,3.0,38,0.00,,,0.00,Wunderground v.1.15,2013-01-28 05:20:00,
2013-01-27 22:21:00,44.2,20.2,29.69,WSW,249,2.0,3.0,38,0.00,,,0.00,Wunderground v.1.15,2013-01-28 05:21:00,
2013-01-27 22:22:00,44.2,20.2,29.69,WSW,256,2.0,3.0,38,0.00,,,0.00,Wunderground v.1.15,2013-01-28 05:22:00,
2013-01-27 22:24:00,44.2,20.2,29.69,WSW,243,3.0,3.0,38,0.00,,,0.00,Wunderground v.1.15,2013-01-28 05:24:00,
2013-01-27 22:25:00,44.1,20.1,29.69,WSW,257,4.0,4.0,38,0.00,,,0.00,Wunderground v.1.15,2013-01-28 05:25:00,
2013-01-27 22:26:00,44.2,20.2,29.69,WSW,253,3.0,4.0,38,0.00,,,0.00,Wunderground v.1.15,2013-01-28 05:26:00,
2013-01-27 22:27:00,44.2,20.2,29.70,WSW,243,4.0,4.0,38,0.00,,,0.00,Wunderground v.1.15,2013-01-28 05:27:00,
2013-01-27 22:29:00,44.1,20.1,29.70,SW,231,4.0,4.0,38,0.00,,,0.00,Wunderground v.1.15,2013-01-28 05:29:00,
2013-01-27 22:30:00,44.1,20.1,29.70,WSW,240,4.0,4.0,38,0.00,,,0.00,Wunderground v.1.15,2013-01-28 05:30:00,
2013-01-27 22:31:00,44.1,20.1,29.70,WSW,243,4.0,4.0,38,0.00,,,0.00,Wunderground v.1.15,2013-01-28 05:31:00,
2013-01-27 22:32:00,44.1,20.1,29.70,WSW,248,2.0,5.0,38,0.00,,,0.00,Wunderground v.1.15,2013-01-28 05:32:00,
2013-01-27 22:34:00,43.9,19.9,29.70,West,270,2.0,5.0,38,0.00,,,0.00,Wunderground v.1.15,2013-01-28 05:34:00,
2013-01-27 22:35:00,43.7,19.7,29.70,West,281,2.0,5.0,38,0.00,,,0.00,Wunderground v.1.15,2013-01-28 05:35:00,
2013-01-27 22:37:00,43.3,20.0,29.70,West,270,0.0,5.0,39,0.00,,,0.00,Wunderground v.1.15,2013-01-28 05:37:00,
2013-01-27 22:39:00,42.7,20.0,29.70,SSE,155,2.0,5.0,40,0.00,,,0.00,Wunderground v.1.15,2013-01-28 05:39:00,
2013-01-27 22:41:00,42.4,20.3,29.70,South,190,3.0,3.0,41,0.00,,,0.00,Wunderground v.1.15,2013-01-28 05:41:00,
2013-01-27 22:42:00,42.1,20.6,29.70,SW,216,1.0,3.0,42,0.00,,,0.00,Wunderground v.1.15,2013-01-28 05:42:00,
2013-01-27 22:44:00,41.4,19.4,29.70,SW,231,2.0,3.0,41,0.00,,,0.00,Wunderground v.1.15,2013-01-28 05:44:00,
2013-01-27 22:46:00,41.1,19.7,29.70,South,174,1.0,3.0,42,0.00,,,0.00,Wunderground v.1.15,2013-01-28 05:46:00,
2013-01-27 22:47:00,40.9,20.6,29.70,South,187,3.0,3.0,44,0.00,,,0.00,Wunderground v.1.15,2013-01-28 05:47:00,
2013-01-27 22:48:00,40.7,20.5,29.70,SSW,194,1.0,3.0,44,0.00,,,0.00,Wunderground v.1.15,2013-01-28 05:48:00,
2013-01-27 22:50:00,40.3,20.1,29.70,SSW,194,3.0,3.0,44,0.00,,,0.00,Wunderground v.1.15,2013-01-28 05:50:00,
2013-01-27 22:51:00,40.1,19.9,29.70,SSW,203,2.0,3.0,44,0.00,,,0.00,Wunderground v.1.15,2013-01-28 05:51:00,
2013-01-27 22:52:00,40.1,20.4,29.71,SSW,205,5.0,5.0,45,0.00,,,0.00,Wunderground v.1.15,2013-01-28 05:52:00,
2013-01-27 22:53:00,40.1,20.4,29.71,SW,226,7.0,7.0,45,0.00,,,0.00,Wunderground v.1.15,2013-01-28 05:53:00,
2013-01-27 22:55:00,40.2,21.0,29.70,SE,135,5.0,8.0,46,0.00,,,0.00,Wunderground v.1.15,2013-01-28 05:55:00,
2013-01-27 22:56:00,40.8,21.6,29.71,SE,134,4.0,8.0,46,0.00,,,0.00,Wunderground v.1.15,2013-01-28 05:56:00,
2013-01-27 22:57:00,41.3,21.5,29.71,SSW,211,4.0,8.0,45,0.00,,,0.00,Wunderground v.1.15,2013-01-28 05:57:00,
2013-01-27 22:58:00,41.5,21.2,29.71,SW,222,4.0,8.0,44,0.00,,,0.00,Wunderground v.1.15,2013-01-28 05:58:00,
2013-01-27 23:00:00,41.7,21.4,29.71,SSW,210,2.0,4.0,44,0.00,,,0.00,Wunderground v.1.15,2013-01-28 06:00:00,
2013-01-27 23:01:00,41.9,21.0,29.71,SSW,204,2.0,4.0,43,0.00,,,0.00,Wunderground v.1.15,2013-01-28 06:01:00,
2013-01-27 23:02:00,42.0,21.1,29.71,SW,228,2.0,4.0,43,0.00,,,0.00,Wunderground v.1.15,2013-01-28 06:02:00,
2013-01-27 23:03:00,42.0,21.1,29.71,SW,228,4.0,4.0,43,0.00,,,0.00,Wunderground v.1.15,2013-01-28 06:03:00,
2013-01-27 23:05:00,42.1,21.2,29.71,WSW,245,4.0,6.0,43,0.00,,,0.00,Wunderground v.1.15,2013-01-28 06:05:00,
2013-01-27 23:07:00,42.2,21.3,29.71,WSW,238,6.0,6.0,43,0.00,,,0.00,Wunderground v.1.15,2013-01-28 06:07:00,
2013-01-27 23:08:00,42.2,21.3,29.71,WSW,256,4.0,6.0,43,0.00,,,0.00,Wunderground v.1.15,2013-01-28 06:08:00,
2013-01-27 23:10:00,42.2,21.8,29.71,SW,231,7.0,8.0,44,0.00,,,0.00,Wunderground v.1.15,2013-01-28 06:10:00,
2013-01-27 23:12:00,41.8,22.5,29.71,West,259,7.0,11.0,46,0.00,,,0.00,Wunderground v.1.15,2013-01-28 06:12:00,
2013-01-27 23:13:00,41.6,22.3,29.71,SW,232,8.0,12.0,46,0.00,,,0.00,Wunderground v.1.15,2013-01-28 06:13:00,
2013-01-27 23:15:00,41.6,22.3,29.70,WSW,246,7.0,12.0,46,0.00,,,0.00,Wunderground v.1.15,2013-01-28 06:15:00,
2013-01-27 23:17:00,41.6,22.3,29.70,WSW,240,6.0,12.0,46,0.00,,,0.00,Wunderground v.1.15,2013-01-28 06:17:00,
2013-01-27 23:18:00,41.6,22.3,29.70,WSW,243,6.0,12.0,46,0.00,,,0.00,Wunderground v.1.15,2013-01-28 06:18:00,
2013-01-27 23:19:00,41.6,22.3,29.70,SW,219,5.0,12.0,46,0.00,,,0.00,Wunderground v.1.15,2013-01-28 06:19:00,
2013-01-27 23:20:00,41.6,22.3,29.71,SW,233,8.0,8.0,46,0.00,,,0.00,Wunderground v.1.15,2013-01-28 06:20:00,
2013-01-27 23:22:00,41.3,22.1,29.71,WSW,245,5.0,9.0,46,0.00,,,0.00,Wunderground v.1.15,2013-01-28 06:22:00,
2013-01-27 23:23:00,41.2,22.0,29.71,SW,217,4.0,9.0,46,0.00,,,0.00,Wunderground v.1.15,2013-01-28 06:23:00,
2013-01-27 23:24:00,41.1,21.9,29.71,South,172,3.0,9.0,46,0.00,,,0.00,Wunderground v.1.15,2013-01-28 06:24:00,
2013-01-27 23:25:00,40.8,22.1,29.71,WSW,253,3.0,9.0,47,0.00,,,0.00,Wunderground v.1.15,2013-01-28 06:25:00,
2013-01-27 23:27:00,40.7,22.0,29.71,West,262,4.0,9.0,47,0.00,,,0.00,Wunderground v.1.15,2013-01-28 06:27:00,
2013-01-27 23:28:00,40.7,22.0,29.71,West,273,4.0,9.0,47,0.00,,,0.00,Wunderground v.1.15,2013-01-28 06:28:00,
2013-01-27 23:29:00,40.5,21.8,29.71,West,267,2.0,9.0,47,0.00,,,0.00,Wunderground v.1.15,2013-01-28 06:29:00,
2013-01-27 23:30:00,40.3,22.1,29.71,WSW,238,6.0,7.0,48,0.00,,,0.00,Wunderground v.1.15,2013-01-28 06:30:00,
2013-01-27 23:33:00,40.3,22.1,29.70,WSW,257,7.0,8.0,48,0.00,,,0.00,Wunderground v.1.15,2013-01-28 06:33:00,
2013-01-27 23:34:00,40.3,22.1,29.71,WSW,246,7.0,9.0,48,0.00,,,0.00,Wunderground v.1.15,2013-01-28 06:34:00,
2013-01-27 23:35:00,40.4,22.2,29.70,WSW,248,7.0,9.0,48,0.00,,,0.00,Wunderground v.1.15,2013-01-28 06:35:00,
2013-01-27 23:38:00,40.1,22.4,29.71,WSW,238,6.0,9.0,49,0.00,,,0.00,Wunderground v.1.15,2013-01-28 06:38:00,
2013-01-27 23:40:00,40.0,22.8,29.70,SSW,211,5.0,6.0,50,0.00,,,0.00,Wunderground v.1.15,2013-01-28 06:40:00,
2013-01-27 23:43:00,39.7,23.0,29.70,WSW,252,4.0,7.0,51,0.00,,,0.00,Wunderground v.1.15,2013-01-28 06:43:00,
2013-01-27 23:45:00,39.5,22.4,29.70,West,262,3.0,7.0,50,0.00,,,0.00,Wunderground v.1.15,2013-01-28 06:45:00,
2013-01-27 23:46:00,39.3,22.2,29.70,SSW,210,4.0,7.0,50,0.00,,,0.00,Wunderground v.1.15,2013-01-28 06:46:00,
2013-01-27 23:48:00,38.9,22.8,29.70,SW,214,6.0,8.0,52,0.00,,,0.00,Wunderground v.1.15,2013-01-28 06:48:00,
2013-01-27 23:50:00,38.7,23.5,29.70,SW,231,5.0,5.0,54,0.00,,,0.00,Wunderground v.1.15,2013-01-28 06:50:00,
2013-01-27 23:51:00,38.6,22.5,29.70,WSW,256,3.0,6.0,52,0.00,,,0.00,Wunderground v.1.15,2013-01-28 06:51:00,
2013-01-27 23:53:00,38.7,23.0,29.70,WSW,253,2.0,8.0,53,0.00,,,0.00,Wunderground v.1.15,2013-01-28 06:53:00,
2013-01-27 23:54:00,38.7,22.6,29.70,WSW,253,1.0,8.0,52,0.00,,,0.00,Wunderground v.1.15,2013-01-28 06:54:00,
2013-01-27 23:55:00,38.8,22.2,29.70,WSW,249,2.0,8.0,51,0.00,,,0.00,Wunderground v.1.15,2013-01-28 06:55:00,
2013-01-27 23:56:00,38.8,22.2,29.70,SW,217,3.0,8.0,51,0.00,,,0.00,Wunderground v.1.15,2013-01-28 06:56:00,
2013-01-27 23:58:00,38.8,23.1,29.69,SSW,213,6.0,8.0,53,0.00,,,0.00,Wunderground v.1.15,2013-01-28 06:58:00,
2013-01-27 23:59:00,38.7,23.0,29.69,SW,217,6.0,8.0,53,0.00,,,0.00,Wunderground v.1.15,2013-01-28 06:59:00,